GFSSE_sfc_temp_000.txt.gz
Temp
81 79 75 76 76 76 76 76 76 76 76 76 76 75 75 75 75 75 75 75 75 77 77 77 77 78 78 79 78 76 76 76 77 77 78 79 79 79 78 77 77 77 76
83 81 75 76 76 76 76 76 77 76 76 76 76 75 75 75 75 75 75 75 75 76 77 77 77 77 77 78 75 75 75 74 75 76 77 78 79 78 78 77 75 74 74
83 81 80 75 75 76 76 77 76 76 76 76 76 75 75 75 75 74 74 74 75 76 76 77 76 75 75 74 74 74 74 74 73 74 75 74 75 77 78 76 75 76 76
85 83 80 74 75 76 75 76 76 76 76 75 75 75 75 75 74 74 73 73 74 75 75 75 75 74 73 73 73 73 73 73 73 73 74 78 78 75 76 76 76 76 76
83 79 76 73 75 75 75 75 75 74 74 74 75 75 75 74 74 73 73 73 74 74 74 74 73 72 72 71 71 72 72 72 72 73 74 75 69 70 72 75 76 76 75
80 77 72 72 73 74 74 74 74 73 73 73 73 74 74 73 73 72 72 72 73 73 73 72 72 71 70 70 70 70 70 70 70 72 75 75 67 70 73 76 73 74 75
81 78 75 71 72 73 74 73 73 72 72 72 72 72 73 72 72 71 71 71 71 71 71 71 70 70 70 70 69 69 69 69 70 72 77 66 66 70 70 74 72 72 73
84 79 77 73 72 72 72 72 71 71 71 72 72 72 72 71 71 71 71 70 70 70 70 69 69 69 69 69 69 68 68 68 72 73 75 70 66 68 72 74 72 71 72
86 83 80 76 72 71 70 70 70 70 70 70 70 70 70 70 70 70 70 70 70 70 69 69 68 68 68 68 68 68 67 67 66 71 74 68 72 73 74 74 72 72 72
85 86 82 78 79 75 71 70 70 70 70 70 70 70 70 70 70 70 70 70 69 69 68 68 68 68 68 68 68 68 67 67 66 71 68 66 71 73 73 74 74 72 72
85 82 81 83 80 78 75 72 70 70 70 70 70 70 69 72 71 70 69 69 69 69 68 68 67 67 67 67 67 67 67 67 70 71 68 68 70 71 72 72 71 71 71
80 82 82 79 78 79 85 73 75 77 74 74 75 74 74 74 74 75 72 68 68 68 68 67 67 66 66 66 65 65 64 69 68 69 64 67 69 70 71 71 71 71 71
83 83 81 78 78 79 78 77 78 77 75 75 76 75 75 74 73 71 68 67 66 66 67 65 66 64 68 66 65 65 66 67 66 68 65 66 68 69 71 71 71 71 71
83 83 81 79 77 78 79 77 77 77 75 75 74 75 72 71 70 70 70 70 69 68 69 68 67 68 67 68 67 65 66 65 65 66 61 65 67 68 70 71 71 71 70
83 82 81 79 77 77 76 76 75 75 74 74 75 74 72 71 69 70 69 69 68 69 68 67 67 67 66 67 66 66 66 65 66 65 62 65 65 67 69 70 71 71 70
84 83 81 81 78 78 77 76 75 75 74 74 74 73 74 71 69 69 68 68 68 68 68 67 66 66 66 66 65 66 66 65 65 65 65 59 64 65 67 69 70 70 70
85 85 76 70 72 76 77 76 75 75 75 74 74 73 74 73 70 69 68 68 68 68 68 67 67 66 65 67 65 65 65 65 64 65 65 64 60 63 64 66 68 69 69
85 82 67 78 76 76 75 75 76 75 73 74 73 73 73 74 72 69 67 67 68 67 67 66 65 64 64 64 63 64 64 65 65 65 65 64 63 65 62 64 65 66 67
86 84 80 75 75 76 75 76 75 74 73 73 72 72 71 71 71 68 66 66 67 66 65 65 66 64 63 63 65 65 63 63 64 70 66 64 63 64 62 62 63 63 65
85 84 83 75 75 77 76 74 74 73 72 73 71 70 71 70 70 67 66 65 66 65 64 63 62 63 62 63 69 69 64 66 65 61 65 67 66 66 64 63 60 60 61
80 82 79 74 74 76 74 71 68 66 69 69 70 70 70 69 68 65 64 64 63 62 61 62 61 60 61 61 62 62 63 63 63 64 66 67 66 66 66 64 60 60 60
76 75 73 73 73 73 72 69 68 68 68 69 69 68 69 66 67 67 63 63 62 60 59 59 59 58 59 60 58 58 55 59 60 63 65 65 66 68 67 66 63 62 62
72 72 73 72 70 68 70 71 68 68 66 65 65 65 66 66 67 65 63 62 61 59 57 57 57 56 54 56 56 53 50 50 55 59 60 64 59 61 58 61 66 66 61
69 70 71 71 71 70 68 67 65 63 62 64 64 64 64 64 63 64 62 60 59 57 56 56 60 54 53 51 53 57 52 49 44 45 53 56 59 57 54 57 58 61 62
69 68 70 70 71 70 67 65 63 62 61 61 60 60 61 61 61 61 60 57 56 56 55 55 54 52 52 48 48 47 46 47 47 41 42 43 48 50 52 52 53 53 56
69 68 68 69 70 69 67 65 62 60 59 59 59 57 57 57 57 58 59 56 55 54 54 53 52 50 46 46 47 46 43 44 43 42 41 40 40 44 47 48 50 49 51

GFSSE_sfc_temp_003.txt.gz
Temp
72 73 74 75 75 75 75 75 75 75 75 75 75 75 75 75 75 74 75 75 76 77 78 77 77 77 77 77 76 75 75 75 76 77 76 78 78 77 77 76 76 76 75
74 74 73 74 75 75 75 75 75 75 75 76 75 75 75 74 74 74 74 75 76 77 77 77 76 76 75 75 74 74 74 74 74 74 76 77 77 77 77 75 74 75 75
73 75 76 74 75 75 75 75 75 76 76 76 75 75 74 74 74 74 74 74 75 76 76 76 75 75 74 73 73 73 73 73 73 73 74 73 72 77 76 75 74 75 75
76 75 75 73 74 74 74 74 75 76 76 75 75 75 74 74 74 74 73 73 74 74 75 75 74 73 72 72 72 72 72 72 72 72 71 71 74 73 74 75 75 76 76
73 74 74 73 73 74 74 74 73 73 74 74 74 74 74 74 74 73 72 73 74 74 74 74 73 72 70 70 70 70 71 71 71 71 69 67 67 71 72 73 74 74 74
71 72 71 72 73 73 74 73 73 72 72 72 73 74 73 73 73 72 72 72 72 73 73 72 72 70 70 69 69 69 69 69 70 67 64 69 68 72 71 71 72 73 73
70 71 72 70 72 73 73 73 72 72 71 71 72 72 72 72 72 71 71 71 71 71 71 70 70 70 69 69 69 69 68 68 68 65 65 65 67 73 72 70 70 73 73
70 71 72 72 71 71 71 71 70 71 71 71 71 71 72 71 71 71 70 70 70 70 70 69 69 69 69 69 69 68 67 67 68 63 67 65 68 72 74 72 72 72 72
72 69 68 70 70 69 69 69 69 70 70 70 70 70 70 70 70 70 70 70 70 69 69 69 69 68 68 68 68 67 66 67 63 64 70 65 70 73 73 73 73 73 72
74 72 69 68 68 66 67 68 69 69 69 69 70 69 69 69 70 70 69 70 70 69 69 69 68 68 68 67 67 67 66 66 63 63 64 64 72 74 74 74 74 72 72
76 74 71 70 69 67 66 69 69 70 69 69 69 69 67 66 67 68 67 69 69 69 68 68 68 67 67 67 66 66 66 62 63 64 62 68 71 72 72 72 72 71 71
72 72 73 72 70 69 77 67 66 69 68 67 68 67 66 65 65 69 68 68 68 68 68 67 67 67 66 61 61 65 60 62 63 63 62 67 70 72 72 72 71 71 71
74 74 72 72 72 71 70 66 67 66 65 67 68 68 68 68 66 66 63 64 62 65 63 65 63 62 61 60 62 61 61 62 60 62 64 66 69 71 72 72 71 71 71
73 74 72 71 72 70 69 68 67 68 67 66 68 69 66 64 64 64 63 63 62 62 61 61 60 62 61 63 63 62 62 61 60 60 60 65 67 70 72 72 72 71 71
72 73 73 71 69 70 70 67 68 67 68 67 67 68 67 65 64 64 63 63 63 63 62 62 62 63 63 63 63 62 62 62 62 61 58 64 65 68 71 72 72 72 72
75 75 73 69 70 72 69 69 68 67 67 67 66 67 68 66 63 63 63 63 63 63 63 63 63 62 62 62 63 63 62 62 63 62 61 58 63 65 68 70 71 71 72
74 71 68 68 68 68 70 70 69 68 69 66 66 67 68 67 65 64 62 62 63 63 63 62 62 61 60 62 61 62 62 62 62 63 61 59 59 62 64 66 68 69 70
69 70 68 70 68 66 68 69 68 67 67 66 65 64 66 66 64 62 62 62 61 62 62 61 60 60 59 58 60 61 60 61 62 62 63 60 59 62 62 64 65 67 68
71 68 66 64 65 65 68 68 67 68 67 65 63 63 65 65 65 62 61 60 60 60 59 59 60 58 57 58 61 62 60 59 59 66 63 63 59 60 59 61 63 63 65
67 71 67 64 63 67 68 68 63 63 63 62 62 63 65 63 63 61 61 61 60 59 57 57 56 57 56 58 64 64 59 60 58 56 58 63 63 63 61 60 60 61 62
69 68 65 63 63 65 60 60 59 60 60 61 62 63 63 64 65 62 59 58 57 57 55 56 55 55 56 55 53 58 56 57 58 58 58 57 59 61 62 60 58 59 60
65 65 63 62 61 62 60 59 60 60 61 61 61 62 63 61 61 62 58 57 56 55 54 54 54 52 52 53 50 51 47 53 54 57 56 57 54 56 58 61 61 60 58
62 62 63 63 62 61 61 62 61 59 58 58 59 59 60 59 59 58 57 55 54 53 52 52 52 51 49 50 51 47 42 41 45 50 53 54 50 51 52 53 55 59 60
58 61 62 63 64 64 61 58 56 54 54 55 55 55 56 57 57 58 56 54 52 51 51 50 55 49 48 45 47 51 46 44 39 38 46 50 50 49 47 49 52 54 55
60 59 60 62 63 63 61 59 56 54 54 54 54 52 52 53 54 55 54 52 51 50 49 48 47 46 45 44 44 43 42 42 46 43 39 40 45 46 45 45 47 51 52
59 60 61 62 62 61 60 60 57 55 54 51 50 49 50 50 51 53 54 51 51 49 48 47 46 45 43 46 47 46 44 42 38 37 36 39 38 41 45 44 45 49 51

GFSSE_sfc_temp_006.txt.gz
Temp
70 72 74 75 75 75 74 74 74 74 75 75 75 75 74 74 74 74 75 75 76 77 77 76 76 76 76 75 75 75 74 74 74 76 76 77 78 78 77 75 75 76 75
71 73 73 74 75 75 75 74 74 74 75 75 75 74 74 74 74 74 74 75 75 76 76 76 75 75 74 74 73 73 73 73 73 73 75 77 78 78 77 75 74 74 75
72 73 75 73 74 75 75 75 75 75 75 75 75 74 74 74 74 74 74 74 74 75 75 75 75 74 73 72 72 72 72 72 72 73 74 69 69 77 76 75 74 75 75
73 73 74 73 73 74 74 74 75 75 75 75 74 74 74 74 73 73 73 73 74 74 75 75 74 73 72 71 71 71 71 71 71 72 69 69 73 73 74 74 75 75 75
72 73 73 72 73 73 73 73 73 73 73 73 74 74 74 73 73 73 72 72 73 73 74 73 73 71 70 69 70 70 70 70 70 70 65 67 66 72 73 74 73 74 74
72 71 71 71 72 73 73 73 73 72 72 72 73 73 73 73 73 72 71 72 72 72 72 72 71 70 69 69 69 69 69 69 69 63 64 68 67 73 74 73 72 73 73
73 73 72 70 71 72 73 73 72 72 71 72 72 72 72 72 72 71 71 70 70 71 71 70 70 70 69 69 69 68 68 68 65 61 63 65 66 73 73 72 71 72 73
72 73 73 71 71 71 72 71 70 70 70 71 71 71 72 71 71 70 70 70 70 70 70 69 69 69 69 69 68 67 67 66 65 61 64 64 67 72 74 73 72 72 72
70 70 70 70 70 69 69 69 69 69 70 70 70 70 70 70 70 70 70 70 70 70 69 69 69 68 69 68 68 67 66 66 62 62 67 63 68 72 74 74 73 72 72
67 68 66 66 67 66 67 68 68 69 69 69 69 69 69 69 69 70 69 70 70 70 70 69 69 68 68 67 67 66 66 65 61 62 63 63 70 72 74 74 74 72 72
68 66 65 65 65 65 65 68 69 69 69 69 69 69 66 65 66 67 67 68 69 69 69 69 68 68 67 67 66 66 66 60 60 62 61 65 70 73 73 73 72 71 71
66 66 67 66 65 65 72 66 65 68 66 66 66 65 64 64 64 67 66 67 68 68 68 68 67 67 66 60 60 64 59 60 60 61 61 65 69 72 74 73 72 71 71
70 70 68 68 66 66 68 64 63 64 64 64 65 64 64 65 63 63 61 62 62 64 62 63 62 61 60 59 59 59 60 60 57 59 62 65 68 71 73 73 72 71 71
71 70 70 68 67 65 65 64 64 64 64 63 64 65 63 62 61 61 60 61 60 60 60 60 59 60 59 60 60 60 60 59 58 59 59 64 66 70 72 73 73 72 71
71 71 69 68 67 67 67 66 65 65 65 65 65 66 63 63 61 61 61 61 60 60 59 59 59 60 60 61 61 60 60 60 60 59 57 63 65 67 71 73 73 73 72
73 68 66 66 67 70 68 66 66 64 63 64 64 64 65 63 61 61 60 61 60 59 59 59 59 59 59 59 60 60 60 60 60 60 59 57 63 65 67 70 72 73 72
73 69 67 67 66 66 68 67 66 62 64 63 63 63 64 63 62 60 59 59 59 59 59 59 59 58 57 59 58 59 59 60 58 59 59 60 58 62 64 67 69 70 71
69 69 66 68 66 64 66 65 66 65 62 62 61 61 63 63 61 59 59 59 58 58 57 57 57 57 56 55 55 56 57 58 59 59 59 58 59 60 61 63 65 67 68
68 67 65 63 63 64 64 62 62 61 60 62 61 61 62 63 63 60 59 59 58 57 56 55 55 54 53 54 57 57 55 56 56 61 59 59 57 59 58 61 63 64 65
63 62 62 62 63 63 61 59 58 57 60 60 60 61 62 61 61 59 58 57 56 55 54 54 53 53 52 51 59 56 53 54 55 53 54 57 57 56 57 58 56 60 61
62 61 59 59 63 63 57 56 55 57 58 58 58 59 59 60 59 57 54 54 54 53 52 52 51 50 51 51 49 54 51 53 52 52 51 51 53 54 54 56 56 54 56
59 59 58 59 59 59 57 56 57 56 56 57 60 61 58 57 57 58 53 52 52 51 50 49 49 48 49 49 47 45 46 52 49 51 49 50 46 49 52 54 54 55 54
57 58 60 59 59 58 59 57 56 56 56 56 55 54 56 55 55 54 52 51 50 50 48 48 47 46 45 46 46 44 40 38 40 46 47 46 44 44 45 48 52 55 54
55 56 59 60 60 60 59 56 56 54 52 52 51 51 51 52 53 54 52 50 49 48 47 46 49 45 45 42 44 48 44 42 41 40 43 47 45 46 42 43 45 50 54
56 56 57 59 60 59 58 57 54 53 51 50 49 49 50 50 52 52 50 51 50 48 46 45 44 43 43 42 41 41 41 41 44 38 36 39 43 42 42 41 42 46 50
56 57 57 59 60 59 57 56 55 52 50 48 48 47 48 48 49 49 50 46 45 44 43 43 42 41 40 40 39 40 39 38 37 36 37 36 38 39 40 41 40 42 44

GFSSE_sfc_temp_009.txt.gz
Temp
69 71 73 74 74 74 74 74 74 74 74 75 75 75 74 74 74 74 74 75 76 76 76 76 75 75 75 75 74 74 74 73 73 75 76 77 78 78 77 75 75 75 75
71 72 73 74 74 74 74 74 74 74 75 75 74 74 74 74 74 74 74 74 75 76 76 75 75 74 74 73 73 73 73 72 72 73 75 76 76 77 77 75 74 74 75
71 73 74 73 74 74 74 74 74 75 75 75 74 74 74 74 74 73 73 74 74 75 75 75 74 74 73 72 71 72 72 72 71 72 73 67 68 76 76 74 74 75 75
72 72 73 73 73 74 74 74 74 75 75 74 74 74 74 74 73 73 73 73 74 74 75 74 74 73 71 70 70 70 71 70 70 71 66 68 71 74 74 75 75 75 75
71 72 72 72 72 73 73 74 74 74 73 73 73 74 74 73 73 73 72 72 73 74 74 73 72 71 70 69 69 70 70 70 69 67 64 65 66 71 75 74 73 74 74
69 70 70 71 72 73 73 73 73 72 72 72 72 73 73 73 73 72 72 72 72 72 72 72 71 70 69 69 69 69 68 68 67 61 62 65 67 72 75 74 72 72 72
69 70 71 70 71 72 73 73 72 71 71 71 72 72 72 72 72 71 71 71 71 71 71 71 70 70 69 69 69 68 68 67 63 59 60 62 63 71 74 73 72 72 72
72 72 71 71 71 71 71 71 70 70 70 70 71 71 72 71 71 71 70 70 70 70 70 70 69 69 69 69 68 67 67 67 64 59 62 63 66 70 74 73 72 71 72
73 72 72 72 70 69 69 69 69 69 70 70 70 70 70 69 70 70 70 70 70 70 70 70 69 69 69 68 68 67 66 66 60 60 64 63 68 71 73 74 73 72 72
71 71 68 66 66 66 66 68 68 69 69 69 69 69 68 69 69 70 69 69 70 70 70 70 69 69 68 68 67 66 66 64 59 59 59 60 69 72 74 73 73 72 72
66 64 64 64 64 64 64 67 68 69 69 68 68 68 66 64 64 65 67 68 69 69 69 69 68 68 67 66 66 66 65 58 58 59 59 65 68 72 73 73 72 71 71
62 63 63 63 63 63 70 65 64 66 65 65 65 65 64 63 63 65 65 66 67 67 68 68 67 67 66 59 59 63 58 59 58 58 58 66 69 72 72 73 72 71 71
65 66 65 64 63 63 66 63 62 63 63 63 64 63 63 64 62 62 60 60 60 63 60 62 61 60 60 58 58 58 59 59 57 58 60 65 68 71 72 73 73 72 71
65 67 67 65 64 63 63 62 63 63 63 63 63 64 61 60 59 59 59 59 58 58 58 58 57 58 58 59 58 58 58 57 57 58 58 63 66 69 72 73 73 73 72
67 68 67 65 64 64 63 63 63 63 64 65 63 64 62 60 59 59 59 58 58 58 58 58 58 58 58 58 58 58 58 58 58 58 56 62 63 67 71 73 73 74 73
70 68 66 66 65 65 63 63 63 63 63 63 63 62 63 60 59 59 58 58 58 57 57 57 57 56 56 56 58 58 58 57 57 58 58 57 62 64 66 70 72 73 73
70 69 65 64 63 63 64 63 62 61 62 61 61 63 63 61 59 59 58 58 57 57 57 56 56 55 55 56 55 56 57 57 57 57 57 57 57 60 62 65 67 69 71
65 65 63 66 62 63 63 62 60 59 59 59 60 59 61 61 60 58 57 56 56 55 55 54 54 54 53 52 52 53 54 55 56 56 55 54 54 56 58 61 63 64 66
63 63 62 63 62 61 61 59 57 58 57 58 58 58 59 59 59 56 55 54 54 54 52 52 52 52 50 51 54 53 51 51 52 56 53 53 53 54 55 58 58 59 62
58 60 60 60 60 58 59 58 56 56 56 56 56 57 58 57 57 55 54 52 52 52 51 50 50 50 50 49 55 54 50 51 50 48 49 53 51 51 52 53 53 54 58
57 58 57 59 60 58 56 55 54 53 54 54 56 56 56 57 57 52 51 51 51 50 48 49 48 48 48 48 46 50 48 49 50 47 47 47 48 49 51 52 52 53 54
56 56 58 57 57 56 55 54 54 53 54 57 58 57 56 54 53 53 50 49 49 48 47 46 46 45 45 45 43 42 41 46 45 49 45 47 43 45 48 50 49 50 50
56 56 57 57 58 57 57 55 54 54 54 53 51 50 51 52 52 51 50 48 47 46 45 44 44 43 42 43 44 42 38 36 38 43 46 43 42 42 42 44 47 48 49
53 55 57 58 58 58 57 56 55 53 52 49 48 48 49 50 50 50 49 47 46 45 43 44 44 41 41 39 41 45 41 39 35 36 40 45 41 44 40 41 42 44 46
54 54 55 57 58 57 56 55 52 50 48 47 47 47 48 48 48 49 47 48 47 45 42 41 41 40 40 38 38 38 39 39 38 36 34 37 39 40 42 39 40 40 43
53 53 53 55 55 55 54 52 50 48 46 46 46 46 46 46 47 47 49 46 44 43 41 40 40 39 38 38 38 37 37 38 38 37 35 36 36 38 38 40 38 39 41

GFSSE_sfc_temp_012.txt.gz
Temp
69 71 74 74 74 74 74 73 73 74 74 75 75 75 74 74 74 74 74 75 75 76 76 75 75 75 75 74 74 73 73 73 73 74 74 76 77 78 76 75 74 74 75
70 71 73 74 74 74 74 74 74 74 75 75 74 74 74 74 74 74 74 75 75 76 76 75 75 74 74 73 72 72 72 72 72 72 73 73 74 76 76 74 74 74 75
70 72 73 73 74 74 74 74 74 75 75 74 74 74 74 74 73 73 73 74 75 75 75 75 74 73 72 71 71 71 71 71 70 71 71 67 68 75 76 74 74 75 75
71 71 73 73 73 74 74 74 74 75 75 74 74 74 74 73 73 73 73 73 74 75 75 74 73 72 71 70 70 70 70 70 69 69 65 66 68 73 75 75 75 74 74
70 71 71 72 73 73 73 73 74 74 73 73 73 73 73 73 73 73 72 72 73 74 74 74 73 71 70 70 70 70 70 69 68 65 63 64 66 70 74 75 73 73 72
68 69 70 71 72 73 73 73 73 72 72 72 73 73 73 73 73 72 72 72 73 73 73 72 71 70 69 69 69 69 68 68 65 59 61 64 65 71 73 74 72 72 72
68 69 70 70 71 72 73 73 72 72 71 71 72 72 72 72 72 71 71 71 71 72 72 71 71 70 69 69 69 68 68 67 62 59 60 63 63 71 73 74 73 72 72
71 70 70 71 71 71 72 71 71 70 71 71 71 71 72 71 71 71 71 71 71 71 70 70 70 69 69 69 69 67 66 66 63 61 62 62 68 72 74 74 73 72 72
73 72 70 69 70 70 69 69 69 70 70 70 70 70 70 69 70 70 70 70 70 70 70 70 70 69 69 68 68 67 66 66 59 60 64 62 69 72 74 74 73 72 71
71 72 72 71 70 67 66 68 68 69 69 69 69 69 69 69 69 70 69 69 70 70 70 70 69 69 68 67 67 66 65 64 59 59 59 60 69 72 73 73 73 72 71
69 69 68 69 66 64 64 66 68 69 69 68 68 68 66 63 63 64 67 68 68 68 68 68 68 68 67 65 65 65 65 58 58 59 58 64 69 72 73 73 72 72 71
66 66 66 63 63 63 68 64 63 65 64 64 64 64 63 63 62 65 65 66 66 67 67 67 67 66 64 59 59 62 59 59 58 58 59 65 68 72 73 73 72 72 71
64 63 62 62 62 62 64 62 62 62 62 62 63 63 62 63 61 61 60 59 59 63 59 60 60 59 59 58 58 58 58 58 57 58 60 64 67 70 73 73 73 73 72
61 63 63 62 61 61 62 61 61 61 61 61 63 63 61 60 59 58 57 57 57 57 57 57 57 58 58 58 57 57 57 57 57 57 58 63 65 68 72 73 74 73 72
62 63 63 62 61 62 61 61 61 61 62 62 62 62 60 59 57 57 57 57 57 57 56 56 56 57 56 57 57 57 57 57 57 57 55 61 63 65 68 70 71 72 73
64 63 64 63 62 63 61 61 60 61 62 62 61 61 61 59 58 58 58 57 56 55 55 55 55 55 54 55 56 56 56 56 56 56 56 55 60 61 63 65 66 67 68
64 64 62 62 61 61 61 61 61 61 63 60 60 60 60 60 58 56 55 55 54 54 54 54 54 53 53 54 54 54 55 55 54 54 54 54 54 58 60 62 63 64 64
62 61 61 63 61 61 59 60 61 59 58 58 57 57 57 58 57 54 54 53 54 53 52 52 51 51 50 50 50 52 52 53 53 53 53 52 52 54 55 59 60 61 62
61 61 60 61 61 60 60 59 58 56 55 55 54 54 56 56 56 54 55 54 52 51 50 50 50 49 49 49 52 51 50 50 50 54 51 51 50 50 52 55 56 57 59
59 59 59 59 59 59 57 56 55 54 53 54 53 54 55 58 56 56 54 51 50 49 48 48 48 48 48 47 52 51 49 50 48 48 48 51 50 49 50 51 51 52 55
56 57 57 57 57 56 54 54 53 52 52 53 53 54 56 57 55 51 49 49 48 47 46 46 46 46 46 45 45 47 46 48 47 47 47 46 47 48 48 49 50 50 51
54 55 56 56 56 56 55 53 53 52 52 52 52 51 51 51 51 51 48 47 46 46 45 44 44 44 44 43 42 41 39 43 45 48 45 46 44 45 47 49 48 48 48
53 54 55 55 55 55 55 53 52 52 52 50 49 48 48 50 49 48 48 46 46 45 44 42 42 42 40 41 41 40 36 34 38 43 45 43 42 42 43 44 46 47 47
52 53 54 55 55 56 55 54 53 50 49 46 46 46 46 48 48 48 48 46 45 44 45 42 43 41 41 37 40 43 40 38 36 35 40 43 42 44 41 41 43 44 45
53 52 52 54 54 54 53 51 49 46 45 45 45 46 46 46 48 48 47 45 45 43 41 41 39 39 39 37 37 36 37 37 38 38 34 38 43 43 42 41 40 41 43
52 51 51 50 49 50 49 48 48 46 45 46 46 46 45 45 45 45 46 43 42 41 40 39 39 38 37 36 36 36 35 35 34 35 33 34 34 39 40 40 39 41 41

GFSSE_sfc_temp_015.txt.gz
Temp
75 79 74 74 74 74 74 74 74 74 75 75 75 75 75 75 75 74 75 75 75 76 76 76 75 75 75 74 73 73 73 72 72 73 74 75 76 77 76 75 75 82 75
77 78 72 74 74 74 74 74 74 74 75 75 75 74 74 74 74 74 75 75 75 76 76 75 75 74 73 73 72 72 71 71 71 71 72 76 76 76 76 75 74 79 75
76 78 79 73 74 74 74 74 74 75 75 75 74 74 74 74 74 74 74 74 75 75 75 75 74 74 73 72 71 72 71 71 70 70 71 80 80 75 76 75 74 75 75
77 78 79 73 73 74 74 74 74 75 75 74 74 74 74 74 73 73 73 73 74 75 75 75 74 73 72 71 71 71 71 70 69 69 78 78 79 73 75 75 74 74 74
76 78 78 72 73 73 73 74 74 74 73 73 74 74 74 74 73 73 73 73 74 75 75 74 73 72 71 70 70 70 70 69 68 75 78 77 78 75 73 74 75 74 73
76 77 73 71 72 73 73 73 73 73 72 72 73 74 74 74 73 72 72 73 74 74 74 73 72 71 70 69 69 69 69 69 70 79 77 76 76 73 74 73 73 72 72
75 77 76 70 71 73 73 73 72 72 71 72 72 73 73 73 72 72 71 72 72 73 72 72 71 70 70 69 69 69 68 68 76 79 78 76 76 73 75 74 73 72 72
74 75 76 72 71 71 72 71 71 71 71 71 71 72 72 71 71 71 71 71 71 71 71 71 70 70 70 69 69 67 66 67 75 77 77 77 72 73 74 74 73 72 72
75 74 75 76 74 70 69 69 69 70 70 70 70 70 70 70 70 70 71 71 71 71 71 70 70 69 69 69 68 66 66 66 76 76 76 78 71 73 74 74 73 72 72
74 74 74 75 76 75 75 68 68 69 69 69 69 69 69 69 70 70 69 70 70 70 70 70 69 69 68 67 66 66 65 66 76 77 78 77 69 73 74 74 73 72 72
71 72 73 72 72 73 74 73 70 69 69 69 70 69 69 74 75 74 69 68 69 69 68 68 68 68 67 67 66 65 65 77 76 77 78 67 69 72 74 73 72 72 72
69 70 71 70 70 72 74 73 73 74 75 74 74 73 75 72 74 73 70 66 66 66 67 66 66 66 69 76 76 71 76 74 75 75 77 65 68 71 73 73 73 72 72
72 70 70 69 70 71 73 73 74 74 73 73 72 72 73 73 72 74 74 75 73 68 74 73 73 75 72 72 73 72 73 73 74 74 72 64 66 69 71 72 72 73 72
69 70 70 70 69 69 73 72 72 73 73 73 73 71 72 73 72 72 74 72 71 71 71 71 72 70 70 70 70 70 70 71 73 73 71 62 64 67 69 69 69 70 71
69 71 71 69 69 69 69 71 71 71 71 71 72 71 73 73 71 72 70 71 71 71 71 70 71 70 70 69 70 69 69 69 70 73 72 61 62 64 66 67 68 68 68
72 71 70 69 69 70 70 69 67 67 67 66 65 66 67 71 69 70 69 69 69 70 69 70 69 69 68 68 68 67 67 68 68 69 71 69 60 60 62 64 64 65 66
73 72 68 66 67 68 67 65 63 63 64 63 64 63 64 66 66 67 68 68 67 67 67 68 67 68 68 68 66 67 67 67 67 66 67 67 67 59 59 60 61 62 63
72 70 68 67 66 65 62 60 60 60 61 63 62 63 65 65 66 66 66 65 65 66 64 66 66 66 65 64 64 66 66 67 65 65 64 64 65 65 62 58 58 59 60
70 67 66 66 65 63 59 59 59 59 59 64 64 65 64 65 64 65 65 63 62 64 63 64 63 62 62 62 64 65 64 66 64 66 62 61 61 62 63 59 57 58 57
66 66 66 64 63 61 60 61 61 61 62 65 65 66 65 66 64 63 63 61 63 62 61 62 61 62 61 59 61 62 62 64 64 64 61 62 60 60 60 60 61 61 57
65 65 65 63 63 64 65 63 63 63 64 64 65 63 63 63 62 62 62 62 61 61 60 60 61 58 60 58 58 59 60 60 60 62 60 60 58 59 58 58 59 60 60
65 65 65 64 66 68 67 66 67 65 64 63 62 61 61 61 61 61 60 61 61 61 59 58 57 57 57 55 53 54 52 56 59 59 59 58 56 56 57 57 56 56 57
62 63 65 66 66 66 65 65 64 64 63 62 62 61 60 60 61 61 60 61 60 59 58 55 54 53 53 54 52 51 47 47 49 56 55 56 54 55 55 55 54 54 55
61 63 64 64 64 64 63 64 62 64 62 59 60 61 63 60 61 62 60 58 56 56 54 54 54 52 52 49 52 53 51 49 44 42 52 53 53 52 51 52 53 53 53
62 62 62 61 62 61 62 61 61 59 59 60 60 59 58 59 58 58 57 56 55 55 52 52 52 51 52 50 49 48 48 48 48 42 39 45 49 51 52 50 51 52 52
60 59 59 60 60 61 61 61 60 59 58 60 59 58 59 58 59 57 55 54 53 53 52 52 50 50 50 50 50 48 46 43 43 42 40 42 42 47 49 50 49 51 52

GFSSE_sfc_temp_018.txt.gz
Temp
83 84 73 74 74 74 74 74 74 74 75 75 75 75 75 75 75 75 75 75 76 76 76 76 75 75 74 74 73 73 72 72 72 72 73 76 76 77 76 75 75 85 75
84 82 73 74 74 74 74 74 74 74 75 75 75 75 74 74 74 75 75 75 76 76 76 75 75 75 74 73 73 73 72 71 71 72 73 76 75 76 76 75 74 80 75
82 84 82 73 74 74 75 75 75 75 75 75 75 75 74 74 74 74 74 75 75 76 76 75 75 75 74 73 72 72 72 71 71 71 75 88 86 75 76 75 74 74 75
82 85 85 73 73 74 74 74 75 75 75 75 75 74 74 74 74 74 74 74 75 75 76 75 75 73 72 71 71 71 71 70 70 72 86 86 86 74 75 75 75 74 74
79 86 84 72 73 74 73 74 74 74 74 74 74 75 74 74 74 74 73 74 75 75 75 75 74 72 71 71 71 70 70 70 70 78 87 83 85 77 75 74 76 75 73
77 82 73 71 72 73 74 74 73 73 72 73 73 74 74 74 74 73 73 74 74 74 74 74 73 71 71 70 70 70 69 69 69 88 86 81 83 75 75 74 73 73 73
73 80 79 70 72 73 73 73 73 72 72 72 73 73 73 73 73 72 72 73 73 73 73 72 71 71 71 70 70 69 68 69 84 87 86 84 79 74 75 74 73 73 73
81 82 81 73 72 72 72 72 71 71 71 71 72 72 73 72 72 72 72 72 72 72 72 71 71 71 70 70 69 67 67 67 83 85 85 85 72 74 75 74 73 72 72
83 81 80 81 77 69 70 70 70 70 71 71 71 71 71 71 71 71 71 71 71 71 71 71 70 70 70 69 68 67 66 67 83 85 85 85 71 74 75 75 73 73 72
79 80 79 81 82 80 79 69 69 69 70 70 70 70 69 70 70 70 71 71 71 71 70 70 70 69 69 68 67 67 66 67 85 85 87 80 70 73 74 74 73 73 72
77 78 81 83 82 82 83 76 70 70 70 69 71 70 70 83 82 79 69 69 69 69 69 69 69 68 68 69 70 68 67 85 83 85 86 67 68 71 73 73 73 72 72
72 75 75 76 74 79 82 80 80 81 82 82 82 80 84 80 82 79 74 68 68 68 69 68 67 68 72 84 84 76 83 81 83 83 81 65 68 71 72 72 72 72 72
75 74 74 72 72 80 80 82 83 83 82 81 79 80 81 81 82 84 85 85 83 73 84 81 82 83 78 79 80 79 80 81 82 83 71 64 67 70 71 70 70 70 70
79 79 73 73 75 78 82 82 82 82 81 82 82 78 79 81 81 81 84 83 81 82 79 80 82 78 78 77 77 77 77 78 80 81 71 63 66 68 69 69 69 68 68
80 80 78 78 77 78 78 80 79 80 81 80 80 78 80 76 77 79 80 82 81 82 81 79 79 79 78 77 77 76 76 75 75 79 79 61 62 64 66 66 66 66 66
81 79 79 79 79 79 78 76 76 75 72 72 71 73 69 68 71 78 79 79 80 80 80 78 77 77 77 76 76 74 74 75 75 74 77 74 60 61 62 63 64 64 64
82 81 78 77 78 76 73 67 66 65 67 68 67 66 63 65 71 73 73 72 74 76 75 76 76 76 75 76 74 74 74 74 74 72 74 75 73 59 60 60 61 61 62
83 80 77 75 75 68 64 62 60 63 66 68 67 67 68 69 71 71 75 75 73 74 75 74 73 73 73 72 71 73 73 73 73 71 72 71 73 73 66 60 60 60 60
83 80 75 74 72 70 65 59 64 64 64 66 69 72 70 70 71 75 73 71 71 73 71 71 71 69 69 69 69 71 71 71 72 74 70 68 68 68 69 64 60 60 60
80 78 74 71 71 68 66 68 72 70 74 75 75 75 73 73 71 73 71 69 71 71 70 69 66 69 67 66 67 68 68 69 70 70 69 69 69 66 66 65 65 66 59
76 75 73 70 70 71 74 73 73 72 74 74 74 71 71 71 70 69 71 70 69 68 66 66 66 65 65 66 62 64 66 67 66 67 68 67 66 65 64 64 64 63 64
74 74 73 73 73 76 78 78 78 76 75 73 72 69 70 69 70 70 68 69 67 67 66 64 62 62 64 63 57 57 56 61 66 66 64 64 63 64 63 62 60 60 61
71 73 75 75 76 76 75 76 74 73 72 73 72 73 70 69 69 68 67 66 66 65 64 62 61 58 58 61 59 55 51 51 55 60 61 62 60 60 60 60 59 59 59
73 75 76 75 74 73 73 74 71 73 71 69 70 70 71 67 67 67 66 65 63 64 62 62 62 58 57 55 58 60 56 54 48 47 57 58 58 58 57 58 57 57 58
72 72 72 72 72 72 72 71 71 68 69 69 70 66 67 67 67 66 65 64 63 63 61 59 58 57 57 55 55 55 53 54 53 49 45 50 55 57 58 57 56 56 56
71 70 70 71 70 71 70 69 67 66 66 66 65 65 66 67 67 67 66 63 62 61 59 58 57 56 55 55 55 54 52 49 49 48 46 47 48 52 55 56 55 55 55

GFSSE_sfc_temp_024.txt.gz
Temp
77 76 73 74 74 74 74 74 74 74 75 75 75 74 74 74 75 75 75 75 76 76 76 76 76 76 75 75 74 74 73 73 72 74 75 76 77 76 75 74 75 76 75
78 77 73 74 74 74 74 74 74 74 75 75 74 74 74 74 74 74 75 75 76 76 76 76 76 75 74 74 73 73 72 72 72 73 75 76 76 76 76 74 74 75 74
78 77 77 73 74 74 74 74 75 75 75 75 74 74 74 74 74 74 74 75 75 76 76 76 75 75 74 73 72 72 72 72 72 72 73 74 76 76 76 74 74 74 75
79 79 77 73 74 74 74 74 75 75 75 74 74 74 74 74 74 74 74 74 75 76 76 75 75 74 73 72 71 72 72 72 71 72 75 80 77 75 75 75 75 74 74
80 81 76 72 73 74 74 74 74 74 74 74 74 75 75 74 74 74 73 74 75 75 75 75 74 73 71 70 70 71 71 71 71 72 75 74 73 75 75 74 74 73 73
76 76 71 72 73 73 73 73 73 73 73 73 73 74 74 74 74 73 73 73 74 74 74 74 73 72 70 70 70 70 70 70 72 75 74 73 72 75 75 73 72 72 72
69 70 72 70 72 73 73 73 72 72 72 72 73 73 73 73 73 72 72 72 73 73 73 72 72 71 70 70 70 69 69 69 72 74 71 70 69 75 75 74 72 72 72
69 69 70 71 72 72 72 71 71 71 71 71 72 72 72 72 72 72 72 72 72 72 72 71 71 71 71 70 70 69 69 68 74 72 72 68 72 74 75 74 72 72 72
69 68 68 70 73 69 69 69 70 70 70 71 71 71 71 71 71 71 71 71 71 71 71 71 71 70 71 71 70 70 69 69 68 73 75 68 72 74 74 74 73 72 72
67 67 69 72 72 70 71 69 69 69 69 70 70 70 70 70 71 71 71 71 71 71 71 71 70 70 71 71 70 69 69 70 71 71 67 65 72 73 73 73 72 72 72
64 67 71 72 73 72 71 71 70 70 70 70 70 70 69 72 71 71 69 70 70 70 70 71 71 71 70 69 72 70 69 71 71 70 65 68 72 73 72 71 71 71 70
62 65 71 72 72 72 77 71 71 72 71 72 72 70 71 73 72 75 72 70 71 71 71 71 71 70 69 71 70 71 69 70 69 68 62 68 71 72 71 70 69 69 69
69 71 72 71 74 76 74 74 74 73 73 73 74 75 73 74 72 72 70 70 68 69 72 69 72 73 72 69 69 67 68 68 66 67 65 67 70 71 70 69 69 68 67
72 72 72 73 74 74 76 74 74 74 73 73 73 74 71 69 69 69 69 70 70 71 71 70 69 71 68 70 69 68 69 66 65 66 61 65 67 69 69 69 68 67 67
72 71 72 74 74 74 73 73 73 71 69 69 70 71 70 69 67 67 67 67 69 69 67 67 67 67 67 68 69 69 68 67 66 65 61 64 65 67 68 67 67 66 65
75 74 74 75 73 75 73 71 68 69 68 68 68 67 66 66 64 66 66 65 67 67 67 66 66 65 65 66 66 66 66 65 66 65 64 60 63 64 65 65 65 65 64
78 77 75 73 74 73 70 69 67 67 67 67 67 68 66 65 66 65 65 65 65 65 65 65 64 64 63 65 64 64 64 64 64 64 63 64 59 61 62 63 63 64 63
80 76 76 77 74 71 68 66 63 62 65 65 65 65 66 67 67 65 65 64 63 63 63 62 62 60 60 60 59 60 61 62 62 64 63 62 61 61 60 62 63 64 62
80 77 75 74 71 68 67 65 63 66 66 66 66 66 67 68 69 66 63 62 62 63 62 62 59 58 57 58 61 59 57 57 59 65 61 61 61 62 62 62 62 62 62
80 76 74 72 68 69 65 64 68 68 68 68 69 68 69 67 67 65 63 62 62 61 60 59 57 58 56 55 62 60 55 55 57 58 60 63 60 61 60 61 57 57 60
78 74 72 67 65 68 65 65 68 66 68 68 69 68 68 67 67 64 62 62 61 59 58 58 56 54 53 54 52 52 53 54 53 55 55 55 56 61 59 58 55 53 54
77 72 69 68 67 69 69 70 71 69 69 68 66 66 66 66 65 65 62 60 59 57 56 55 54 51 52 52 47 48 44 47 51 53 52 53 51 55 56 56 54 54 51
71 70 71 70 70 71 72 74 71 69 66 65 65 63 64 65 65 64 62 59 57 56 54 53 53 52 48 49 50 46 41 39 45 49 49 50 49 49 50 52 54 53 52
69 69 72 72 73 74 73 71 67 66 64 64 63 63 64 65 64 64 62 59 58 56 54 53 56 50 49 45 48 53 47 45 39 39 45 47 47 50 47 47 48 51 51
72 72 73 74 73 72 71 69 67 64 63 63 62 61 62 61 61 61 59 56 54 54 54 53 52 50 49 46 45 44 44 44 44 39 37 39 44 46 48 47 47 47 50
73 71 70 70 71 70 68 66 63 60 60 59 58 56 58 58 57 57 58 54 54 53 52 52 51 51 49 46 46 45 44 41 40 38 36 38 39 42 44 46 45 45 46

GFSSE_sfc_temp_027.txt.gz
Temp
70 73 73 74 74 74 74 73 74 74 74 75 74 74 74 74 74 75 75 75 76 76 77 76 76 75 75 75 74 73 73 73 72 73 75 76 77 76 75 74 74 75 75
72 74 73 74 74 74 74 74 74 74 74 75 74 74 74 74 74 74 75 75 76 76 76 76 75 75 75 74 73 73 73 72 72 72 74 75 76 76 75 74 73 74 75
72 74 74 73 74 74 74 74 74 75 75 75 74 74 74 74 74 74 74 75 75 76 76 76 75 75 74 73 72 73 73 72 72 72 74 73 72 75 75 74 73 74 74
72 73 73 73 73 74 74 74 74 75 75 74 74 74 74 74 74 74 74 74 75 76 76 75 75 74 73 72 71 72 72 72 71 72 72 73 75 75 75 74 74 74 73
73 74 73 72 73 73 74 73 73 73 73 74 74 75 75 74 74 74 73 74 75 75 75 75 74 73 72 71 71 71 72 71 72 72 66 67 69 75 74 73 72 73 72
72 72 71 72 73 73 73 73 73 73 72 73 73 74 74 74 74 73 73 73 74 74 74 74 73 72 71 70 70 71 71 70 71 65 66 70 69 75 75 73 72 72 72
70 70 72 71 72 73 73 73 72 72 72 72 72 73 73 73 73 72 72 72 73 73 73 72 72 71 70 70 70 70 70 70 69 64 64 66 68 75 75 73 72 72 72
68 70 71 71 71 71 71 71 71 71 71 71 72 72 72 72 71 71 71 71 71 71 71 71 71 71 71 71 70 69 69 70 69 65 65 65 72 74 74 73 72 71 71
67 67 67 69 70 69 69 69 69 70 70 70 70 70 71 70 70 71 71 71 71 71 71 71 71 70 71 71 70 68 68 69 65 66 69 64 72 73 73 73 72 72 71
64 66 67 66 69 68 69 68 69 69 69 70 70 70 69 70 70 70 70 71 71 71 71 71 71 71 71 70 70 68 68 68 64 62 62 64 72 73 72 71 71 70 70
63 65 65 66 67 68 68 69 69 70 69 69 69 69 67 67 68 70 69 70 70 70 70 70 70 70 69 69 69 69 68 66 64 61 60 69 72 72 71 70 69 69 68
62 64 65 68 67 69 73 67 66 69 67 67 67 67 67 67 67 70 68 68 69 69 69 70 69 69 70 67 66 67 64 65 63 61 61 68 71 72 71 70 68 68 67
63 64 66 66 69 70 70 67 66 66 65 66 67 66 67 69 66 66 64 65 64 67 68 70 68 68 67 64 64 64 64 64 60 60 63 67 70 71 70 69 68 68 67
63 66 67 70 70 71 70 68 67 68 68 67 68 68 66 64 64 64 64 64 64 63 64 63 63 65 64 66 66 64 64 62 61 59 60 66 68 70 70 69 68 67 66
67 68 68 70 70 69 68 68 67 66 65 66 66 66 65 63 61 62 62 63 62 63 62 62 62 63 62 63 62 63 63 62 62 61 57 64 65 68 68 67 66 66 66
68 68 68 69 69 69 67 65 63 64 64 65 64 64 63 62 61 61 62 62 62 62 61 61 60 59 59 60 61 61 61 61 60 60 58 57 63 65 66 66 66 65 65
69 70 67 68 68 66 64 63 62 62 65 62 63 63 62 62 62 61 61 59 60 60 60 60 59 58 57 60 58 59 59 58 58 59 58 58 57 62 63 64 65 64 64
70 69 69 72 66 63 62 61 60 61 61 61 61 61 62 63 63 61 59 58 58 58 58 56 55 55 55 54 53 54 54 56 56 57 57 57 54 58 60 62 64 63 63
72 71 68 66 63 62 61 60 59 60 60 59 59 60 62 63 63 59 58 57 58 57 55 56 55 53 52 52 55 53 51 51 53 58 56 57 56 54 57 60 61 61 62
71 69 68 65 62 61 60 59 59 60 60 60 60 61 62 62 61 59 58 58 57 55 54 54 53 53 51 50 57 53 49 50 51 49 50 55 53 54 55 57 54 55 59
69 68 65 64 62 61 59 58 59 59 60 59 60 61 61 61 61 57 56 56 55 54 53 53 51 50 49 48 46 46 48 48 50 48 49 49 50 52 52 52 53 53 53
68 64 64 64 63 62 61 62 62 61 59 59 59 59 60 60 60 60 57 55 55 53 52 50 49 47 47 46 44 42 39 43 46 48 46 48 46 48 51 55 53 53 49
64 62 63 64 65 65 64 66 62 61 58 57 56 56 58 60 60 59 57 55 53 52 50 49 48 47 44 45 46 43 37 34 38 43 46 46 44 43 44 46 49 49 48
63 63 63 65 64 66 65 63 63 61 58 55 55 56 57 59 58 57 55 52 50 50 49 48 52 47 45 42 43 48 43 40 35 34 40 42 43 45 43 43 44 46 47
66 65 66 64 65 68 68 67 58 57 56 55 54 53 54 54 56 56 53 50 49 48 47 47 47 46 45 43 41 41 40 40 39 35 31 35 39 41 42 41 41 42 45
65 62 62 64 64 61 59 58 57 56 53 52 50 50 54 55 51 54 53 50 50 48 47 47 46 45 43 42 42 43 40 39 37 35 32 33 34 37 40 41 40 41 41

GFSSE_sfc_temp_030.txt.gz
Temp
71 72 73 74 74 74 73 73 73 74 74 74 74 74 74 74 74 74 75 75 75 76 76 76 76 76 75 75 74 74 74 73 73 74 75 76 76 76 74 74 74 73 74
73 74 73 73 74 74 74 74 74 74 74 74 74 74 74 74 74 74 75 75 75 76 76 76 76 75 75 74 74 73 73 72 72 73 74 75 76 75 74 73 73 73 74
73 73 74 73 74 74 74 74 74 74 75 74 74 74 74 74 74 74 74 75 75 76 76 76 76 75 75 74 73 73 72 72 72 73 74 68 70 75 74 73 73 73 74
73 73 74 73 73 74 74 74 74 75 74 74 74 74 74 74 74 74 74 74 75 76 76 76 76 75 74 72 72 72 73 72 72 72 69 69 73 74 74 73 73 73 73
72 73 73 72 73 73 73 73 73 73 73 73 74 74 74 74 74 74 73 74 74 75 76 76 75 74 72 71 71 72 72 71 69 68 63 66 68 74 74 73 72 72 72
70 72 71 72 72 73 73 73 73 73 72 73 73 74 74 74 74 73 73 73 74 75 75 74 73 72 71 71 71 71 71 70 68 62 64 68 68 75 74 73 72 72 72
69 71 72 71 72 72 73 73 72 72 72 72 72 73 73 73 73 72 72 72 73 73 73 73 72 71 71 71 71 70 69 69 64 61 62 65 67 74 74 73 72 71 71
68 69 71 72 71 72 72 71 71 71 71 71 72 72 72 72 72 71 71 71 71 71 71 71 71 71 71 71 70 69 68 69 66 62 63 63 71 74 74 72 71 70 70
65 66 68 70 70 69 69 69 69 70 70 70 71 71 71 70 70 71 71 71 71 71 71 71 71 71 71 71 70 68 67 67 62 63 67 63 72 73 72 71 70 70 70
63 64 65 67 67 67 68 68 69 69 69 70 70 70 69 69 70 70 70 71 71 71 71 71 71 71 70 70 69 68 67 65 61 60 61 63 72 72 72 70 69 69 69
63 64 64 65 65 67 67 69 69 70 69 69 69 69 67 66 67 68 68 70 70 70 70 71 70 69 69 69 69 68 66 61 60 59 59 69 72 72 71 69 69 68 67
62 63 64 65 65 66 71 66 65 68 66 65 65 66 66 65 65 68 68 68 68 69 70 70 69 69 67 63 63 65 61 61 60 59 59 68 71 71 70 69 68 67 67
64 64 64 64 67 67 67 64 63 63 63 64 65 65 65 66 65 64 63 64 63 67 65 66 65 64 63 61 61 61 61 60 58 58 61 67 70 71 70 69 68 67 66
62 65 65 66 67 66 66 64 64 64 63 63 65 66 64 62 61 61 61 62 62 61 61 61 60 61 61 62 61 61 60 59 58 58 57 65 68 70 70 69 67 66 66
62 65 66 66 68 67 64 64 64 64 65 64 63 64 64 61 60 61 60 60 60 60 60 60 60 59 59 60 60 60 59 58 57 56 55 62 65 68 69 68 67 66 65
64 65 67 67 66 67 65 63 63 65 64 63 63 62 62 60 60 60 60 59 59 59 59 58 57 56 55 57 57 57 57 56 56 56 55 55 61 65 67 67 66 65 65
67 68 65 65 67 65 63 63 61 62 62 61 61 61 61 61 61 59 58 58 58 58 57 56 55 55 54 56 55 55 55 55 55 55 54 54 55 62 63 65 65 64 64
67 66 67 69 65 63 60 60 60 60 60 60 60 60 61 61 60 58 57 57 56 55 54 54 53 53 52 52 51 51 51 52 52 53 54 53 52 54 59 63 63 63 63
68 67 63 64 62 60 60 58 59 60 59 59 58 59 60 61 60 58 56 55 54 54 53 54 52 51 50 49 52 50 48 49 49 54 51 51 51 51 52 59 60 60 61
68 66 64 63 60 60 59 58 58 58 58 58 58 59 60 59 58 56 54 53 54 53 51 51 51 50 49 47 54 51 47 47 47 46 47 52 50 50 51 51 49 53 59
67 64 63 61 60 60 58 57 57 57 57 57 58 59 59 58 57 55 53 53 53 52 51 51 49 48 47 45 45 44 45 45 45 45 45 46 47 48 48 48 48 47 49
65 65 62 62 61 62 60 58 59 58 57 56 56 56 57 57 56 56 53 53 53 52 50 49 47 45 45 44 42 40 38 41 43 46 44 45 42 44 46 48 47 49 46
64 62 62 61 62 62 62 60 58 57 55 54 53 54 55 57 57 56 54 52 50 50 49 48 47 46 43 43 43 42 36 34 36 40 43 41 41 41 41 43 45 46 45
61 62 62 63 63 62 61 60 59 59 58 53 53 53 54 56 54 54 52 49 49 47 46 45 49 44 42 41 41 46 41 40 34 32 38 39 40 43 40 40 41 43 44
62 61 61 62 62 62 61 59 58 56 54 53 52 52 52 51 52 52 51 48 47 46 45 45 44 43 42 40 40 40 39 38 37 34 30 34 38 39 39 39 39 39 42
62 61 61 60 60 61 61 59 58 54 52 51 49 49 49 49 50 50 50 47 47 46 45 45 43 43 42 41 41 44 43 41 36 34 31 31 32 36 38 39 39 38 39

GFSSE_sfc_temp_033.txt.gz
Temp
71 72 73 74 73 73 73 73 73 73 74 74 74 74 74 74 74 74 74 75 75 76 77 76 76 76 76 75 74 74 73 73 74 74 75 76 75 75 74 73 73 72 74
73 73 72 73 73 73 73 73 73 74 74 74 74 74 74 74 74 74 75 75 76 77 77 76 76 76 76 74 73 73 73 72 73 73 73 75 75 75 74 73 73 72 73
72 73 72 73 73 74 74 74 74 74 75 74 74 74 74 74 74 74 74 75 75 76 77 76 76 76 75 73 73 73 72 72 72 72 72 66 69 74 74 73 73 73 73
73 72 72 73 73 73 73 73 74 75 74 74 74 74 74 74 74 74 74 74 75 76 77 77 76 75 73 72 72 72 72 71 70 70 66 68 72 74 74 73 73 73 72
72 73 73 72 73 73 73 73 73 73 73 73 74 74 74 74 74 74 73 74 75 76 76 76 75 74 72 71 71 72 71 70 69 67 63 65 67 73 73 72 71 72 72
71 72 71 71 72 73 73 73 73 72 72 73 73 74 74 75 74 73 73 74 75 75 75 75 74 72 71 71 70 71 69 68 66 61 63 67 67 74 73 72 71 71 71
68 70 70 70 72 72 73 73 72 72 72 72 73 73 73 74 73 72 72 72 73 73 74 73 72 72 71 71 70 70 68 67 63 61 61 63 67 73 73 72 71 70 71
67 68 70 71 71 72 72 72 71 71 71 72 72 72 73 72 72 71 71 71 71 72 72 72 71 71 71 70 69 68 67 67 64 61 62 62 71 73 72 71 70 70 70
64 67 67 67 70 69 69 69 69 70 70 70 71 71 71 70 70 71 71 71 71 71 71 71 71 71 71 70 68 67 66 66 61 61 65 62 72 72 72 70 70 69 69
62 63 64 65 67 67 69 68 69 69 69 69 70 69 69 69 70 70 70 71 71 71 71 71 70 70 70 69 67 66 65 65 59 59 60 63 72 72 71 70 69 68 68
60 61 62 64 65 66 66 68 69 69 69 69 69 69 66 64 64 66 68 69 70 70 70 70 69 69 67 68 67 66 64 59 58 58 59 68 71 71 70 69 68 68 67
59 60 62 63 64 65 70 66 65 67 64 64 65 64 63 63 64 66 67 68 68 68 69 69 68 67 65 61 60 63 58 58 58 57 58 68 71 71 70 68 68 67 66
61 61 60 62 64 64 65 63 62 62 62 63 64 64 64 64 64 63 62 62 62 65 63 63 62 61 61 59 58 58 58 57 55 56 59 66 70 71 70 68 67 67 66
62 63 64 64 64 63 63 62 62 62 62 62 64 64 62 60 61 61 61 61 60 59 59 59 58 59 58 59 59 57 57 55 54 54 55 63 66 70 70 68 67 66 66
62 64 64 64 64 64 63 62 61 62 62 63 63 63 62 60 59 59 59 59 59 59 58 57 57 57 56 57 56 57 56 55 54 53 52 61 63 66 69 68 67 66 65
62 63 64 64 65 64 62 62 62 63 63 62 62 61 61 59 59 59 58 57 57 57 56 55 54 54 53 55 55 55 54 53 53 52 51 51 59 63 66 67 66 66 65
63 64 63 63 63 63 62 61 61 62 62 61 61 61 60 60 59 57 56 56 56 55 55 54 53 53 52 54 53 53 52 51 52 51 50 51 51 58 63 65 65 64 64
64 63 64 67 63 61 60 59 60 60 60 60 60 59 60 60 58 56 55 54 54 54 53 52 52 51 50 50 49 48 48 49 50 50 50 49 49 52 56 61 63 63 63
64 64 63 63 61 59 58 59 59 59 59 59 58 58 59 59 59 56 54 53 53 52 51 53 49 50 48 47 50 47 46 46 46 51 49 49 49 49 50 57 59 60 61
63 63 62 61 59 59 58 58 58 57 57 57 57 58 58 57 57 55 53 52 52 51 50 49 49 48 46 45 52 48 44 44 45 44 45 49 47 47 47 48 46 49 58
63 61 61 59 58 59 57 57 55 55 55 55 56 57 57 56 55 53 52 52 51 50 49 49 47 46 45 44 43 43 43 43 43 43 43 43 45 46 46 46 45 45 46
63 62 61 61 59 60 59 57 57 56 55 55 55 55 55 55 54 54 52 51 50 49 48 46 46 44 43 43 41 38 37 40 42 43 41 43 41 42 44 46 45 45 43
62 62 62 61 60 61 59 58 55 54 54 53 52 52 53 55 55 53 51 49 48 48 46 45 45 44 43 43 43 42 35 33 34 39 40 40 40 39 40 41 43 44 43
62 63 63 62 60 61 59 58 56 54 54 52 51 52 52 53 51 51 49 48 46 46 45 45 46 43 41 40 40 44 39 38 34 33 37 38 39 41 39 39 39 41 42
62 60 61 60 61 61 60 59 55 53 52 51 50 50 49 48 50 51 49 48 47 45 44 43 43 42 41 39 39 38 37 36 36 34 30 34 37 38 38 38 39 38 40
59 60 59 60 60 60 59 57 55 53 51 51 48 47 46 46 48 47 49 47 49 47 46 45 42 42 42 40 39 39 38 37 35 34 32 31 31 35 37 39 38 38 38

GFSSE_sfc_temp_036.txt.gz
Temp
70 72 73 74 74 73 73 73 73 73 74 74 74 74 74 74 74 74 75 75 76 76 77 77 76 76 76 75 75 74 74 73 73 74 75 75 75 75 74 73 72 73 74
72 72 72 73 74 73 73 73 73 73 74 74 74 74 74 74 74 75 75 75 76 77 77 77 76 75 75 74 73 73 73 72 72 72 73 75 75 74 74 73 73 73 73
72 72 72 73 73 73 74 74 74 74 74 74 74 74 74 74 74 75 75 75 76 77 77 76 76 75 75 73 73 73 73 72 71 72 72 67 70 74 74 73 73 73 73
72 71 71 72 73 73 73 74 74 75 74 74 74 74 74 74 74 74 74 75 76 76 77 77 76 75 73 73 72 72 72 71 70 69 66 67 72 74 73 73 73 73 72
72 71 71 72 72 73 73 73 74 74 73 73 74 74 74 75 75 74 74 75 75 76 76 76 75 74 72 71 71 71 70 70 68 66 64 66 68 73 73 72 71 71 71
71 70 69 71 72 73 73 73 73 73 72 73 73 74 75 75 74 74 73 74 75 76 76 75 74 72 70 70 70 70 69 68 66 62 64 67 68 73 72 71 71 71 71
69 68 70 70 72 73 73 73 72 72 72 72 73 73 74 74 73 73 72 73 73 74 74 74 73 71 70 70 70 69 68 67 62 61 62 65 68 73 72 71 71 70 70
67 68 69 71 71 71 72 71 71 71 71 72 72 73 73 72 72 72 71 72 72 72 72 72 71 71 70 70 69 68 67 67 64 62 63 64 71 72 71 71 70 70 70
66 66 66 66 69 69 69 69 69 70 70 71 71 71 70 70 70 71 71 71 71 71 71 71 71 70 70 69 68 67 66 66 61 62 65 64 72 72 71 70 70 69 69
63 65 64 63 65 66 67 68 68 69 69 70 70 69 69 69 70 70 70 71 71 71 71 71 70 70 69 68 67 66 65 64 59 60 62 64 71 71 71 70 69 69 68
61 62 62 63 64 65 66 68 68 69 69 68 68 68 65 64 64 65 68 69 70 70 70 70 68 67 67 67 66 65 63 58 58 59 59 68 71 71 70 69 68 68 68
59 60 62 63 64 65 69 65 64 67 64 64 64 63 62 62 62 65 66 68 68 68 68 67 66 66 63 59 59 61 57 57 57 58 58 67 70 71 69 68 68 67 67
60 61 61 62 64 64 64 63 61 61 61 61 62 62 62 62 62 62 62 62 62 64 61 62 61 60 58 57 56 55 55 55 54 55 58 65 68 71 70 68 67 67 66
60 59 61 62 63 63 63 62 61 62 61 61 62 63 62 61 61 60 60 60 59 58 57 57 56 56 56 57 56 55 54 53 53 54 55 63 65 68 70 68 67 66 66
60 61 61 62 63 63 62 61 61 61 61 61 62 63 62 60 59 59 58 58 57 57 56 55 55 55 55 55 55 54 53 53 52 52 51 60 62 65 68 68 67 66 65
61 61 64 63 63 63 61 60 60 61 61 62 62 61 60 58 57 57 56 56 55 55 54 54 53 53 52 53 53 52 52 51 51 51 51 51 59 62 65 68 67 66 65
62 63 61 62 63 61 60 59 59 60 61 60 60 59 59 59 58 56 55 54 54 54 54 53 52 52 52 53 51 51 50 50 50 50 50 50 52 59 62 65 65 65 65
61 61 62 65 61 60 59 59 59 59 59 59 59 59 59 59 58 55 54 53 53 53 53 52 51 50 49 49 48 46 47 49 49 49 49 49 50 53 56 61 63 63 63
61 62 61 61 60 59 58 58 59 59 59 59 58 59 59 59 58 55 53 52 53 52 51 52 48 49 47 47 49 46 45 46 47 50 48 48 49 49 50 57 58 59 61
60 62 61 60 59 58 57 57 57 57 57 57 57 57 58 57 56 54 53 52 51 50 49 48 48 46 46 46 51 48 44 44 44 44 45 49 47 47 47 48 48 50 57
60 60 60 58 57 58 56 56 55 55 55 55 55 56 56 55 55 53 51 50 50 49 48 48 46 46 44 43 43 43 42 43 44 43 44 44 46 46 46 46 46 46 47
61 60 59 59 57 59 59 56 56 55 54 54 54 54 54 54 53 53 50 49 48 47 46 46 45 43 43 42 41 39 37 41 42 43 42 44 42 43 45 46 46 46 45
61 60 61 59 58 59 58 56 53 53 52 52 51 51 52 53 53 51 49 48 46 46 44 44 44 44 42 41 41 41 37 35 36 40 41 41 42 41 42 43 45 45 45
61 61 61 59 58 59 58 58 55 55 52 51 50 50 50 51 50 49 48 46 45 44 44 44 45 43 43 40 42 43 40 39 36 34 39 39 40 41 40 41 42 43 44
60 58 60 60 59 61 60 59 56 54 53 51 50 48 47 47 48 48 47 45 44 44 45 47 47 45 41 40 39 39 38 37 37 35 32 35 39 40 40 40 40 40 41
57 58 59 59 60 60 59 57 56 53 50 50 47 46 45 45 45 46 46 45 45 45 47 46 42 42 41 40 40 39 40 38 37 34 31 32 32 36 39 39 39 41 40

GFSSE_sfc_temp_039.txt.gz
Temp
74 78 73 74 74 74 73 73 73 74 74 74 74 74 74 75 75 75 75 75 76 77 77 77 77 77 76 76 75 74 73 73 74 74 75 75 75 75 74 73 75 79 74
77 79 72 73 74 74 73 73 73 74 74 74 74 74 74 74 75 75 75 76 76 77 77 77 76 76 76 75 74 73 73 72 72 73 75 76 75 75 74 73 73 76 74
75 79 77 73 73 73 74 74 74 74 74 74 74 74 74 75 75 75 75 76 76 77 77 77 76 76 75 74 73 73 72 72 71 72 74 81 79 74 74 73 73 73 73
76 79 78 72 73 73 73 74 74 75 74 74 74 74 74 75 75 75 75 75 76 77 77 77 76 75 74 73 72 72 71 71 70 72 79 80 79 74 73 73 73 73 73
75 78 77 72 73 73 73 74 74 74 73 74 74 74 75 75 75 75 74 75 76 77 77 77 75 74 72 71 71 71 70 69 70 76 80 78 79 75 73 73 73 72 72
73 77 72 71 72 73 73 73 73 73 73 73 73 74 75 75 75 74 74 75 76 76 76 75 74 72 71 70 70 70 69 69 73 80 79 76 77 73 73 72 71 71 71
71 72 71 70 72 73 73 73 72 72 72 73 73 73 74 74 74 73 73 74 74 74 74 73 72 71 70 70 70 69 68 68 78 78 78 77 75 73 72 71 71 70 70
68 69 70 71 71 72 72 71 71 71 72 72 72 73 73 72 72 72 72 72 72 72 72 72 71 71 70 70 69 68 67 69 77 77 77 78 72 72 72 71 70 70 69
67 66 65 66 68 69 69 69 69 70 71 71 71 71 71 70 71 71 71 72 72 71 71 71 71 70 70 69 68 66 66 67 76 77 77 78 72 72 72 71 70 69 69
64 63 62 63 64 66 70 69 69 69 69 69 70 69 69 70 70 70 70 71 71 71 71 71 70 69 68 67 66 65 64 67 75 76 77 76 71 71 71 71 70 69 68
60 59 60 61 64 65 69 71 70 69 69 69 70 68 69 76 75 75 70 69 70 69 69 69 68 67 66 66 66 65 67 74 75 75 76 68 71 71 70 69 69 68 68
57 58 59 62 64 67 70 71 69 69 70 72 74 73 75 73 75 75 71 68 68 67 67 67 66 66 70 74 73 69 73 71 73 73 75 66 71 71 69 69 68 68 67
61 61 62 63 64 65 66 66 68 69 70 72 71 72 71 72 72 73 73 73 72 69 72 70 71 72 70 71 70 69 69 70 72 73 69 65 68 71 69 68 68 67 67
62 62 62 62 62 63 65 66 68 69 71 71 72 70 70 71 71 71 72 71 68 69 68 70 69 67 68 68 68 67 67 69 72 72 69 62 65 68 70 69 67 67 66
63 64 63 63 64 66 66 66 68 68 70 69 70 70 69 70 67 70 68 69 69 70 69 68 68 69 67 66 67 66 66 65 66 70 71 60 63 65 68 69 68 67 66
65 65 66 66 68 69 67 67 68 69 69 69 70 69 69 70 68 68 67 68 68 69 69 69 68 68 67 67 65 64 64 65 65 65 69 68 60 63 66 69 67 67 66
66 66 66 66 68 68 68 68 69 69 70 71 70 69 68 68 67 67 65 66 66 66 65 66 65 66 66 66 63 63 64 63 64 64 66 67 68 60 62 65 66 65 66
69 68 67 69 68 67 67 67 67 68 68 69 68 67 68 67 66 65 66 65 65 66 66 65 65 64 64 65 63 64 64 64 62 62 64 65 66 67 63 62 63 63 63
69 69 67 68 68 67 67 66 67 68 69 68 66 66 66 66 66 67 66 64 64 64 63 64 63 64 63 64 64 63 62 63 62 63 61 61 61 64 67 58 58 59 61
68 68 69 68 68 67 66 66 68 68 69 67 67 67 66 67 65 65 64 62 64 63 63 63 61 61 62 62 63 61 60 60 61 61 62 63 62 61 64 63 65 63 57
68 68 68 67 67 67 64 64 65 65 65 64 65 66 66 66 65 64 64 62 63 63 61 61 60 60 60 60 59 59 58 57 57 60 61 62 60 61 60 62 64 65 63
68 68 68 68 67 68 68 68 68 67 65 66 64 65 66 64 65 64 62 62 62 60 59 59 60 59 60 58 57 56 55 55 57 57 59 58 57 60 60 59 58 59 60
67 67 67 68 67 68 68 67 64 64 63 61 61 64 64 64 64 63 61 61 60 61 60 59 59 57 56 55 55 57 53 53 53 56 55 58 56 57 57 57 56 57 57
67 68 68 68 67 67 66 67 65 66 64 63 63 64 63 62 61 62 60 59 59 59 58 57 58 57 56 55 54 56 55 55 52 50 56 56 56 55 55 56 56 55 54
68 66 67 68 68 67 66 67 64 64 63 60 60 59 59 59 60 59 59 58 57 58 57 56 54 52 51 49 56 54 53 54 53 49 47 51 54 55 56 54 54 53 53
68 67 66 67 66 66 63 64 63 63 60 58 58 57 57 58 57 57 58 58 57 57 56 51 48 47 47 55 55 54 54 52 51 50 47 48 48 50 53 54 54 53 52

GFSSE_sfc_temp_042.txt.gz
Temp
83 85 73 74 75 74 74 74 74 74 74 75 75 75 75 75 75 75 75 76 76 77 77 77 77 77 77 76 75 74 74 73 74 75 75 75 76 75 74 74 77 81 74
86 85 72 73 74 74 74 74 74 74 74 75 75 75 74 75 75 75 76 76 77 77 77 77 77 77 76 75 74 73 73 72 72 74 75 76 75 75 74 73 73 77 74
82 86 81 73 73 74 74 74 74 74 75 75 74 74 75 75 75 75 75 76 76 77 77 77 77 76 75 74 73 73 72 72 72 74 78 86 81 74 74 73 73 73 73
82 84 84 72 73 73 73 74 74 75 74 74 74 75 75 75 75 75 75 75 76 77 77 77 77 75 74 72 72 72 72 72 72 75 86 86 83 74 74 73 73 73 74
82 85 83 72 72 73 73 73 74 74 74 74 74 75 75 75 75 75 74 75 76 77 77 77 75 73 72 71 71 71 71 72 73 81 85 83 82 76 73 73 74 72 72
79 81 73 71 72 73 73 73 73 73 73 73 74 74 75 75 75 74 74 75 76 76 76 75 73 72 71 70 70 70 70 72 76 86 84 80 79 73 73 72 71 71 71
74 77 75 70 72 73 73 73 73 72 73 73 73 74 74 75 74 74 73 74 74 74 74 73 72 71 70 70 70 69 69 72 85 85 84 81 77 73 72 72 71 70 70
71 73 71 72 72 72 72 72 72 72 72 72 73 73 73 73 72 73 72 72 73 72 72 72 71 71 70 70 69 68 69 71 83 84 83 81 73 72 72 71 70 70 70
68 69 69 71 71 69 69 70 70 71 71 71 72 72 71 71 71 72 72 72 72 72 72 71 70 70 70 69 68 66 67 70 83 82 83 82 72 72 72 71 70 70 69
65 65 65 65 64 66 71 68 69 69 70 70 70 70 69 70 70 71 71 71 71 72 71 70 69 69 68 67 66 66 67 70 82 83 83 79 72 72 71 70 70 69 69
60 62 62 62 64 67 71 73 70 69 69 69 70 69 70 81 81 80 71 70 70 70 69 68 68 67 66 66 66 67 69 82 82 83 82 68 71 71 70 70 69 68 68
57 59 61 61 63 66 70 71 75 75 79 75 74 76 83 80 82 81 73 68 67 67 67 67 67 68 72 81 78 72 81 79 81 81 78 67 70 70 70 69 68 68 68
58 58 58 58 59 64 64 69 72 74 73 76 76 79 79 80 79 81 78 79 77 73 79 77 77 81 78 80 78 78 78 79 80 81 71 65 68 71 69 69 68 68 67
58 60 57 58 62 64 64 68 72 74 76 78 79 78 78 79 79 79 81 80 79 80 77 77 77 75 75 75 75 74 74 77 78 80 70 63 65 68 71 69 68 67 67
61 61 62 63 63 63 64 66 71 73 74 77 77 79 80 80 77 79 79 80 78 78 77 77 75 75 74 74 74 73 73 73 73 77 78 63 63 66 68 70 68 67 66
61 61 61 63 67 66 71 72 70 72 75 76 79 78 77 79 77 79 77 77 77 78 77 77 76 76 76 75 72 72 71 73 72 72 76 73 62 63 66 68 68 67 66
69 68 68 69 72 73 75 74 76 77 78 78 77 77 77 78 76 76 76 75 76 76 75 74 74 75 75 76 72 72 74 72 73 71 73 74 73 61 62 66 66 66 66
74 72 72 73 73 72 73 75 77 78 78 79 79 77 75 76 76 74 75 74 75 74 75 75 75 74 74 75 73 75 74 73 71 71 73 72 73 75 62 61 63 64 63
76 75 72 72 72 72 75 76 75 76 78 80 78 77 74 73 73 75 75 74 73 74 73 73 73 74 72 74 74 74 73 72 70 72 70 70 69 71 73 58 59 59 61
77 76 74 74 73 72 74 75 77 77 79 78 77 77 75 75 73 75 75 72 74 73 71 72 70 71 73 73 73 70 69 69 69 68 68 70 70 68 68 67 68 66 58
76 75 75 73 74 75 72 73 75 74 77 75 75 75 73 76 74 74 74 72 72 72 71 69 69 67 69 70 68 67 66 65 64 67 67 68 66 66 65 66 67 69 67
76 75 75 75 75 75 77 77 77 77 77 77 76 74 74 74 74 73 72 71 71 70 68 67 67 67 70 69 64 64 62 63 63 64 66 65 63 66 65 64 64 64 64
75 75 76 77 77 77 77 78 78 78 76 74 71 70 72 72 73 73 71 71 70 70 68 67 67 66 65 65 63 61 59 59 63 65 61 63 62 63 63 63 62 62 62
77 78 77 78 78 78 78 77 74 74 73 74 72 72 73 71 72 72 71 70 68 70 67 67 67 66 61 57 54 60 61 62 59 58 62 61 63 61 61 62 62 61 61
78 77 77 77 77 77 76 76 74 73 77 77 73 71 70 69 69 70 69 68 67 68 66 65 63 61 56 53 59 61 61 61 60 56 55 60 63 63 63 61 60 60 60
80 78 76 76 76 76 74 72 72 72 73 68 69 68 68 67 67 65 66 66 67 67 64 64 63 57 53 57 62 63 61 59 59 57 55 56 56 59 62 60 59 60 59

GFSSE_sfc_temp_045.txt.gz
Temp
87 84 74 75 75 74 74 74 74 74 74 75 75 75 75 75 75 75 76 76 76 77 78 77 77 77 76 76 74 74 74 74 74 74 75 76 75 75 74 74 77 78 74
89 85 73 74 74 74 74 74 74 74 74 75 75 75 74 75 75 75 76 76 77 77 78 77 77 76 76 75 74 73 74 73 73 74 75 76 75 75 74 73 73 76 74
85 85 80 74 74 74 74 74 74 74 75 75 74 74 75 75 75 75 76 76 77 77 77 77 76 76 75 74 73 73 73 73 74 75 79 83 79 74 74 73 73 73 73
82 85 82 73 74 74 74 74 74 75 75 74 74 75 75 75 75 75 75 75 76 77 77 77 76 75 74 73 72 73 73 73 74 76 85 84 81 74 74 73 73 73 73
75 85 80 72 73 73 73 74 74 74 74 74 74 75 75 75 75 75 74 75 76 77 77 76 75 74 72 71 71 72 72 73 74 82 83 81 80 75 73 72 74 72 71
71 77 72 71 72 73 73 73 73 73 73 73 74 75 75 75 75 75 74 75 76 76 76 75 74 72 71 70 71 71 71 73 73 85 82 78 76 73 73 71 71 71 71
73 73 74 70 72 73 73 73 73 73 73 73 74 74 74 74 74 74 74 74 75 75 74 74 72 71 70 70 70 70 71 71 87 85 82 78 74 73 72 71 71 70 70
75 71 70 71 72 72 72 72 72 72 72 73 73 73 74 73 73 73 73 73 73 73 72 72 71 71 70 70 69 69 70 71 84 84 82 78 73 72 72 71 70 70 70
68 68 68 70 71 70 69 69 70 71 71 72 72 71 71 71 71 72 72 72 72 72 71 71 70 70 70 69 68 68 70 71 84 84 83 79 72 72 72 71 70 69 69
65 65 63 63 69 70 70 69 69 69 70 70 70 69 69 70 71 71 71 71 71 71 71 70 69 69 69 68 68 68 69 72 83 85 81 76 72 72 71 70 70 69 69
63 64 63 60 61 65 69 70 70 70 69 69 70 69 70 76 79 75 71 70 70 69 69 69 68 67 67 67 68 69 69 82 83 83 79 69 71 71 70 70 69 69 68
60 60 60 60 61 63 67 69 72 75 75 75 75 73 78 76 80 80 72 68 68 67 68 68 68 68 70 81 79 72 81 80 81 81 73 67 70 70 70 69 69 68 68
59 59 60 61 62 64 64 65 71 76 76 74 74 74 79 78 77 79 76 77 75 72 78 75 74 80 80 81 79 78 79 80 80 81 69 65 68 71 70 69 68 68 67
56 57 58 60 61 62 61 64 68 74 73 73 74 78 74 79 78 79 80 80 78 80 78 79 80 77 77 77 76 75 76 77 78 80 69 64 66 68 70 69 68 68 67
56 56 57 59 60 61 61 64 69 74 71 74 77 79 77 78 78 80 81 81 81 81 80 78 77 77 76 76 77 76 75 74 75 77 75 64 64 66 68 70 69 68 67
57 57 58 59 61 62 64 64 66 68 71 75 77 77 78 80 78 80 79 81 80 80 80 79 78 76 76 76 74 74 74 75 74 74 77 69 63 64 66 68 69 68 67
59 60 59 59 61 64 67 68 71 70 73 74 76 76 77 78 78 79 79 78 79 80 78 78 76 77 76 78 74 74 75 73 75 73 74 75 67 62 63 66 67 67 66
60 61 63 68 69 69 71 74 76 77 77 79 79 78 78 79 79 77 78 78 78 77 77 76 76 75 76 76 74 75 75 74 72 72 73 72 73 74 62 62 64 64 64
70 68 67 69 68 67 70 76 76 78 78 80 80 80 78 78 78 77 78 77 76 77 76 76 75 75 73 74 74 74 73 72 72 74 71 70 70 71 72 61 61 60 61
74 72 70 73 71 71 72 76 78 78 78 81 81 81 78 78 76 76 78 76 75 76 75 74 73 74 74 74 74 73 71 71 71 70 69 71 70 68 68 68 67 65 60
74 74 75 73 73 72 72 75 76 74 77 79 81 80 79 78 76 75 78 75 74 75 73 72 71 69 70 71 69 70 71 68 67 68 69 69 69 68 67 66 67 68 64
77 77 76 75 75 74 74 77 79 78 79 80 80 77 75 77 77 76 76 75 73 74 72 70 69 69 70 69 66 66 62 63 66 66 68 67 65 67 66 67 65 65 65
78 77 78 78 78 78 79 80 80 80 80 78 79 78 74 76 78 76 76 75 73 74 70 68 69 68 67 67 66 60 53 57 63 68 64 65 65 64 65 65 64 64 63
79 80 80 80 80 76 80 78 77 77 76 78 76 74 74 74 75 76 75 73 72 72 70 69 70 69 67 64 62 63 61 62 58 58 65 63 64 62 63 63 63 63 63
80 80 79 80 81 81 80 79 78 76 78 80 79 74 73 75 74 74 73 71 69 70 70 69 68 66 66 60 62 60 62 63 62 57 55 61 64 65 65 63 62 61 62
82 80 80 79 80 81 81 79 77 75 76 75 72 72 74 73 72 71 72 69 68 67 68 67 66 61 59 59 55 61 62 60 60 59 57 58 58 62 64 64 61 61 61

GFSSE_sfc_temp_048.txt.gz
Temp
78 78 74 75 75 74 74 74 74 74 74 75 75 75 75 75 75 75 76 76 77 77 77 77 76 76 76 76 75 75 74 74 74 74 75 75 75 75 74 74 74 74 74
71 79 74 74 74 74 74 74 74 74 75 75 75 74 75 75 75 75 76 76 77 77 77 77 76 76 76 75 74 74 73 73 73 74 75 75 75 75 74 73 73 73 74
65 77 77 74 74 74 74 74 74 75 75 75 74 74 75 75 75 75 75 76 76 77 77 77 76 76 75 74 73 73 73 73 73 74 76 73 73 75 74 73 73 73 73
70 78 76 73 74 74 74 74 74 75 75 74 75 75 75 75 75 75 75 75 76 77 77 76 76 75 74 73 72 72 73 73 74 76 76 74 74 73 74 73 72 73 73
77 80 75 73 73 74 74 74 74 74 74 74 74 75 75 75 75 75 75 75 76 77 76 76 75 74 72 71 71 72 72 73 74 75 72 71 70 73 72 72 72 71 72
77 77 70 70 73 73 74 74 73 73 73 73 74 75 75 75 75 75 74 75 76 76 76 75 73 72 70 70 71 71 71 72 74 74 71 71 70 73 72 71 71 70 70
71 71 71 69 71 72 73 73 73 73 73 73 74 74 74 74 74 74 74 75 75 75 74 73 72 71 70 70 70 70 71 71 77 73 70 68 68 72 72 71 70 70 70
71 71 70 71 71 72 72 72 71 72 72 72 73 73 73 73 72 73 73 73 73 72 72 71 71 70 70 70 70 70 70 70 78 73 70 67 71 72 72 71 70 69 69
69 69 70 69 69 68 69 70 70 71 71 71 71 71 71 71 71 71 72 72 72 71 71 70 70 69 69 69 70 69 68 70 70 73 74 68 72 72 71 71 70 69 69
66 66 65 66 67 68 68 69 69 69 69 70 70 70 70 70 70 70 70 71 71 71 70 70 69 69 68 69 69 69 69 68 72 72 69 66 71 72 71 70 70 69 68
63 63 63 63 65 65 67 69 70 70 69 69 70 69 69 71 71 72 69 70 70 69 69 69 68 68 68 68 69 69 69 70 71 69 66 69 71 71 70 70 69 68 68
59 60 63 63 63 64 66 67 68 70 70 70 70 70 71 69 71 71 68 68 68 68 68 68 68 68 68 67 66 68 68 70 69 67 63 67 70 71 70 69 69 68 68
59 59 59 61 62 63 64 64 66 65 68 69 68 71 70 70 69 68 67 67 65 68 68 67 66 68 70 68 67 66 67 68 66 65 64 66 68 70 70 69 68 68 67
58 58 59 61 62 62 62 63 63 66 68 68 68 70 69 68 69 69 69 68 67 67 66 67 66 68 68 69 68 67 67 65 64 62 61 65 66 68 70 69 69 68 67
55 57 59 59 60 60 60 61 63 66 68 68 68 71 71 69 68 69 69 71 70 71 68 68 67 68 67 68 67 67 67 65 65 63 58 64 65 67 68 70 69 68 67
56 56 58 58 59 59 58 59 60 65 67 68 68 70 71 69 68 70 71 71 71 70 69 68 67 66 66 66 65 66 65 65 65 64 61 59 64 65 66 69 70 68 68
56 57 58 58 59 59 60 60 61 65 69 68 69 70 70 71 70 70 69 70 69 70 69 68 68 67 66 68 65 65 64 65 64 64 63 59 59 63 64 66 68 67 67
58 58 59 60 58 58 59 60 65 68 68 69 68 68 70 71 70 69 69 68 69 68 67 66 65 65 64 64 61 62 63 63 63 63 63 62 61 61 60 63 64 65 65
61 59 58 59 59 59 63 68 67 67 68 70 69 70 70 71 72 69 68 68 68 67 66 66 65 64 62 62 63 61 61 61 61 67 63 63 61 60 58 61 61 61 62
63 63 62 63 62 63 65 67 70 70 71 70 72 73 72 71 71 68 67 67 65 66 65 65 63 63 62 61 69 64 60 60 60 59 60 64 61 60 59 58 54 55 60
64 65 65 64 64 64 64 65 66 67 69 70 71 72 72 72 71 68 67 67 65 65 65 64 62 61 59 60 57 57 58 58 58 57 58 57 59 59 58 57 55 55 55
66 66 66 67 66 66 66 68 70 70 70 72 72 73 72 70 71 69 67 67 65 65 64 62 61 58 58 58 54 54 51 53 54 57 56 57 56 57 58 58 56 57 54
67 67 68 69 69 70 69 71 72 72 70 69 70 69 70 70 70 70 68 66 65 65 62 61 60 59 56 56 57 52 48 47 50 54 54 54 54 53 54 56 57 57 55
71 71 72 72 72 72 72 70 70 70 69 69 68 70 70 69 68 70 70 67 65 63 62 60 62 59 57 53 53 57 56 54 46 45 51 52 54 55 52 52 53 55 55
74 73 73 74 74 74 74 72 70 69 69 70 70 68 68 67 68 68 68 66 63 63 62 61 60 59 56 54 55 53 54 54 51 47 43 48 51 52 53 51 51 51 54
77 75 74 74 75 75 73 72 68 67 69 67 66 65 65 66 66 65 67 64 63 62 61 61 60 58 53 54 53 53 52 52 52 50 47 47 47 51 55 54 50 50 50

GFSSE_sfc_temp_051.txt.gz
Temp
67 74 74 75 74 74 74 74 74 74 75 75 75 75 75 75 75 76 76 76 76 77 77 77 77 77 76 76 75 74 74 74 74 74 75 75 75 74 74 73 73 73 74
68 72 73 74 74 74 74 74 74 74 75 75 75 75 75 75 75 75 76 76 76 77 77 77 77 76 76 75 74 74 74 74 73 73 74 75 75 74 74 73 73 73 73
69 72 74 73 74 74 74 74 74 75 75 75 75 75 75 75 75 75 75 76 76 77 77 77 77 76 75 74 73 73 73 73 73 73 73 71 72 74 73 73 73 73 73
69 71 71 73 74 74 74 74 74 75 75 75 75 75 75 75 75 75 75 75 76 76 77 77 76 75 74 72 72 73 73 72 72 72 70 70 72 73 73 72 73 72 72
71 73 73 72 73 74 74 74 74 74 74 74 74 75 75 75 75 75 74 75 75 76 76 76 75 73 72 71 72 72 72 72 71 70 66 65 68 72 72 71 71 71 71
71 73 71 71 73 73 74 74 73 73 73 73 74 74 75 75 75 75 74 75 75 76 76 75 74 72 71 71 71 71 73 71 70 65 65 69 68 72 72 71 71 71 70
69 69 71 70 72 71 72 73 73 72 72 73 73 74 74 74 74 74 74 74 74 74 74 73 72 71 70 71 71 71 71 70 68 65 62 64 67 72 71 71 70 70 70
68 68 69 70 69 69 69 71 72 72 72 72 72 73 73 73 73 73 73 73 72 72 72 71 71 70 70 71 70 69 68 70 69 66 64 63 71 71 71 70 70 69 69
69 68 68 69 69 68 68 69 70 71 71 71 71 71 71 71 71 72 72 72 71 71 71 71 70 70 70 70 70 69 67 69 66 67 69 63 71 71 71 70 69 69 69
66 67 67 67 67 67 67 68 69 69 69 70 70 69 69 69 70 70 70 71 71 71 70 70 69 69 70 70 70 68 67 68 65 64 63 66 71 71 71 70 69 69 68
63 63 64 64 65 65 68 69 69 69 69 69 69 69 67 68 69 69 69 69 70 69 69 69 69 69 69 69 70 69 67 65 64 62 61 69 71 71 70 69 69 68 68
60 61 62 63 63 65 68 68 67 68 67 67 68 66 68 66 67 69 68 68 68 68 68 68 68 68 68 64 63 66 64 62 62 60 60 68 70 71 70 69 68 68 67
60 61 61 61 61 64 64 64 66 65 67 67 67 67 67 67 66 65 65 65 64 66 64 65 65 64 65 63 63 62 62 60 58 59 63 67 69 70 70 69 68 68 67
57 59 60 61 61 61 65 62 63 63 66 65 66 67 65 64 66 64 64 64 63 62 62 62 62 63 64 65 64 63 63 59 57 57 60 65 67 69 70 69 69 68 67
56 58 59 60 60 60 60 60 61 63 65 65 64 67 68 66 65 66 65 65 65 62 62 62 63 64 64 64 63 63 62 61 59 58 55 64 65 68 69 70 69 68 67
57 57 59 58 59 59 59 60 59 61 65 64 65 68 67 65 64 65 65 66 63 65 63 63 64 63 63 63 62 62 62 60 60 57 56 57 64 65 67 69 69 69 68
57 58 58 58 59 59 60 60 60 60 66 64 66 67 68 68 67 66 63 64 64 64 65 64 63 62 61 63 62 61 61 61 61 60 57 56 57 62 64 66 68 68 67
58 57 58 60 58 59 59 59 62 63 64 65 65 65 68 69 67 65 63 63 62 64 64 62 61 60 60 59 57 58 58 59 60 61 59 57 56 58 60 63 65 66 66
59 59 58 58 58 59 60 62 63 63 62 63 65 66 67 68 68 65 65 63 64 63 62 63 61 60 58 57 58 56 56 56 58 63 59 57 56 55 55 61 62 62 63
59 58 58 58 59 60 60 63 62 62 61 62 64 65 66 67 67 65 64 62 62 62 61 60 60 59 58 58 65 60 54 55 55 55 56 60 57 55 54 55 53 54 61
56 56 57 57 59 60 59 61 61 62 63 62 63 66 66 67 66 65 62 63 61 61 61 60 59 58 56 55 54 52 53 53 55 54 54 54 56 56 54 52 51 51 53
58 58 58 59 60 60 60 65 64 64 63 66 66 65 67 67 67 64 62 61 60 60 60 59 58 55 55 54 52 49 48 50 51 53 52 53 52 54 54 56 54 53 51
58 59 60 61 62 63 62 63 65 65 63 61 61 65 67 68 66 65 63 62 60 59 58 57 56 56 53 53 53 51 45 44 46 49 51 51 51 50 51 53 54 54 52
60 62 63 63 63 65 65 63 63 63 63 65 62 63 64 66 65 66 65 63 60 60 58 57 58 57 57 54 52 54 50 51 46 44 51 52 50 51 49 49 51 52 52
63 63 64 65 65 66 65 65 63 62 66 64 65 61 64 62 63 63 62 61 61 62 60 58 58 58 56 54 52 52 50 52 52 48 42 49 49 49 49 48 49 48 51
66 64 64 65 65 66 66 66 66 64 63 63 61 63 62 61 61 63 63 61 61 59 59 58 57 57 53 53 53 52 51 50 50 48 45 43 47 47 49 49 47 47 48

GFSSE_sfc_temp_054.txt.gz
Temp
70 73 74 74 74 74 74 74 74 74 75 75 75 75 75 75 75 75 75 76 76 77 77 77 76 76 76 76 75 74 74 73 73 74 74 75 75 74 74 73 73 73 74
69 73 72 73 74 74 74 74 74 74 75 75 75 75 75 75 75 75 75 75 76 77 77 77 76 76 75 75 74 73 73 72 72 73 74 75 74 74 74 73 72 72 74
69 74 73 71 73 74 74 74 74 75 75 75 75 75 75 75 75 75 75 75 76 77 77 77 76 75 75 74 73 73 73 72 71 71 72 69 71 74 73 73 73 73 73
68 73 72 72 72 74 74 74 74 75 75 75 75 75 75 75 75 75 74 75 76 77 77 77 76 75 74 73 72 73 72 71 70 69 66 68 71 73 73 72 72 72 72
68 71 72 72 71 72 74 74 74 74 74 74 74 75 75 75 75 74 74 74 76 76 77 76 75 74 72 71 72 71 71 70 69 67 61 63 67 72 72 72 71 71 71
68 70 70 71 71 72 74 74 73 73 73 73 74 74 75 75 75 74 74 74 75 76 75 74 74 72 71 71 71 71 70 69 67 60 61 68 67 72 72 71 71 71 69
68 69 70 70 72 72 71 72 73 72 72 73 74 74 74 74 74 73 73 74 74 74 74 73 72 71 71 71 71 69 69 68 63 59 60 62 67 71 71 71 70 69 69
68 69 69 71 72 69 69 68 70 72 72 72 73 73 74 73 73 73 72 72 72 72 71 71 71 71 71 71 70 69 68 68 65 61 62 62 70 71 71 70 69 69 68
67 67 66 68 69 68 67 67 67 70 71 72 72 72 72 71 71 72 71 71 71 71 71 71 70 70 70 70 68 68 67 67 61 63 66 62 71 71 70 70 69 68 68
66 67 67 67 67 66 66 67 68 69 69 69 70 70 69 70 70 70 70 70 70 70 70 70 70 70 70 69 68 67 66 66 60 61 61 66 71 71 70 70 69 68 68
63 65 66 65 64 64 65 65 69 69 69 69 69 69 68 68 69 69 69 69 70 69 69 69 69 68 67 68 68 67 65 61 60 60 60 69 70 71 70 69 69 68 67
61 62 63 64 63 63 64 66 67 68 68 67 66 67 66 66 67 68 68 68 68 68 68 68 68 68 65 61 62 65 60 60 59 58 60 68 70 70 70 69 68 68 67
60 61 62 62 63 63 62 65 67 66 67 65 66 66 67 66 65 65 66 65 65 66 65 65 64 63 64 61 61 60 60 58 57 58 63 67 70 70 70 69 68 67 67
60 60 61 62 62 62 66 67 66 66 67 66 66 64 64 64 64 64 64 63 63 62 62 61 60 62 62 63 62 60 59 56 54 56 60 66 68 70 70 69 68 68 67
58 58 60 60 60 61 61 62 63 64 67 65 64 64 66 63 62 64 63 61 62 61 59 60 61 61 61 62 61 61 59 57 56 56 55 65 65 68 70 70 69 68 67
58 58 59 59 59 60 59 60 62 63 65 65 65 66 63 63 62 63 61 62 61 61 60 61 61 61 61 61 60 60 58 57 57 56 55 56 64 65 67 69 69 69 68
58 58 58 58 60 60 59 59 60 62 65 66 65 65 64 65 64 61 60 60 60 61 62 61 61 61 60 61 60 59 59 58 57 56 55 55 57 63 64 66 68 69 68
57 57 58 60 59 59 59 60 63 62 62 65 63 64 65 66 65 63 62 61 61 61 61 61 60 59 58 58 56 56 57 57 57 56 55 55 55 57 61 64 66 67 66
57 56 56 58 59 59 60 62 62 62 62 64 64 65 65 66 65 64 62 61 61 60 60 62 59 59 56 55 56 54 54 54 56 60 56 55 54 54 54 62 62 63 64
59 59 59 58 60 59 60 62 62 61 62 62 64 63 64 65 65 63 62 61 61 59 59 59 59 57 57 56 62 58 52 53 53 53 54 56 54 54 53 54 54 55 61
58 58 58 58 58 59 59 60 60 59 60 60 61 63 63 63 65 63 62 60 60 59 59 59 58 57 55 54 53 51 51 51 51 51 52 52 53 53 52 52 51 51 53
56 57 58 58 59 60 60 61 61 61 58 60 61 62 62 63 63 63 61 60 60 59 59 57 57 54 54 52 53 51 52 50 50 51 50 51 50 52 52 53 51 51 50
55 54 56 57 58 59 59 60 58 58 58 58 59 60 62 62 63 63 62 60 59 58 58 56 55 55 55 54 54 54 47 46 45 48 49 49 50 49 50 51 52 51 50
55 57 58 58 59 59 59 60 60 61 61 63 60 62 62 62 63 64 63 60 59 59 58 57 56 54 56 54 52 55 53 52 48 48 51 49 50 52 48 47 49 50 50
58 57 58 59 60 61 61 61 60 58 61 62 60 58 61 60 63 64 63 60 59 59 60 58 56 55 55 53 53 50 51 51 51 48 44 47 51 50 48 47 49 47 49
58 58 58 58 60 61 61 61 60 58 59 60 58 57 58 61 60 62 63 61 59 59 59 59 57 56 54 53 53 51 50 49 48 46 44 45 46 48 51 51 49 46 46

GFSSE_sfc_temp_057.txt.gz
Temp
70 72 73 74 74 74 74 74 74 74 75 75 76 75 75 75 75 75 75 75 76 77 77 76 76 76 76 75 74 74 74 73 73 74 74 74 75 75 74 73 73 73 74
72 72 72 73 74 74 74 74 74 74 75 75 75 75 74 74 74 75 75 76 76 77 77 76 76 75 75 74 73 73 72 72 72 73 74 74 74 74 73 73 73 73 73
71 71 72 72 72 72 73 74 74 75 75 75 75 75 74 74 74 75 75 75 76 76 76 76 76 75 74 73 72 72 72 71 71 71 71 68 70 74 73 72 72 73 72
69 69 71 71 72 71 70 73 74 75 75 75 75 75 75 74 74 75 75 75 75 76 76 76 75 74 73 72 72 71 71 70 69 69 65 66 71 73 73 72 72 72 71
67 70 71 71 71 71 70 73 74 74 74 74 74 75 75 75 75 75 74 75 75 76 76 76 75 73 72 71 71 70 70 69 68 65 60 63 66 71 71 71 71 71 71
66 69 70 70 70 71 73 73 73 73 73 74 74 74 75 75 74 74 74 75 75 75 75 75 73 72 71 70 70 69 69 68 65 59 60 67 66 72 71 71 70 70 69
65 68 70 70 71 73 72 72 71 72 72 73 74 74 74 74 74 73 74 74 74 74 74 73 72 71 70 70 69 69 68 67 61 58 59 62 66 71 71 70 69 69 69
66 68 67 71 71 71 71 70 70 71 72 72 73 73 73 73 73 73 72 72 72 72 72 72 71 71 70 69 68 67 67 67 63 59 60 62 70 71 70 69 69 68 68
66 66 67 69 69 66 65 65 65 69 71 72 72 72 72 71 71 71 71 71 71 71 71 71 71 70 70 69 68 67 66 65 59 60 64 62 70 70 70 69 69 68 68
65 64 66 66 66 65 63 65 67 69 70 71 71 70 69 70 70 70 70 70 71 71 71 71 69 69 69 68 67 66 65 65 58 58 60 65 70 71 70 69 68 68 67
64 64 65 65 65 64 64 65 68 70 68 69 69 69 68 68 67 67 69 69 70 69 69 69 68 68 68 67 67 66 64 58 58 58 59 69 70 70 70 69 68 67 67
62 63 62 63 62 63 65 65 67 68 68 69 69 68 67 65 66 67 67 68 68 68 68 68 67 67 65 60 63 63 58 58 58 58 60 68 70 70 69 69 68 68 67
61 62 62 62 63 62 61 60 67 66 65 62 62 65 65 65 66 65 65 64 65 65 64 64 61 62 62 60 59 57 58 58 57 58 62 67 69 70 69 69 68 67 66
60 61 62 61 60 61 63 62 65 65 65 63 63 65 64 63 65 64 62 61 62 62 61 61 60 61 60 60 58 57 57 56 54 55 60 66 68 70 70 69 68 67 67
59 60 60 62 61 60 60 62 63 64 64 63 63 64 65 65 63 61 61 60 61 60 60 59 60 60 59 59 58 57 56 55 55 55 55 65 66 69 70 70 69 68 67
58 59 59 60 61 61 62 62 61 60 62 63 64 65 64 63 62 62 61 61 59 60 60 59 60 59 59 58 57 57 56 55 55 55 55 57 64 65 68 69 69 68 67
58 58 59 59 60 60 60 60 61 62 65 64 65 63 63 63 63 61 59 59 57 59 59 59 59 58 57 59 58 57 55 55 55 55 54 55 58 63 64 67 68 68 68
58 58 59 60 60 60 60 60 63 62 64 65 65 64 62 63 63 61 60 59 59 58 58 58 58 57 56 57 55 54 54 54 55 55 54 54 54 57 61 64 65 66 67
58 57 57 58 59 60 60 61 61 62 62 62 63 63 63 65 64 63 62 60 60 59 58 58 57 57 55 55 55 53 53 53 54 57 54 54 53 54 54 62 63 64 65
57 58 57 57 57 59 58 58 59 60 61 62 62 63 63 63 63 62 61 60 61 59 58 57 57 56 56 55 60 56 51 51 52 51 53 55 53 53 53 54 54 56 62
57 57 58 56 57 57 61 57 58 58 60 61 62 64 63 63 62 61 60 59 59 58 58 58 56 55 54 53 52 51 50 51 50 50 50 51 52 53 51 52 51 51 53
56 57 58 58 58 58 60 63 62 60 60 61 62 62 63 62 62 61 60 59 59 58 57 56 55 53 54 52 52 52 47 50 49 49 48 50 49 50 51 52 50 51 50
55 56 57 58 59 60 61 60 59 60 60 59 60 60 61 62 62 61 60 59 58 57 58 56 55 54 53 51 53 54 48 47 49 50 50 51 49 47 48 49 51 51 50
56 57 57 56 57 58 60 59 59 60 60 57 58 59 60 60 60 61 60 59 58 58 57 57 57 54 53 52 52 54 53 52 49 48 51 51 51 51 47 49 49 49 49
56 52 55 56 57 58 57 58 56 54 56 57 58 57 57 58 59 60 60 59 58 58 58 57 55 53 53 53 52 51 51 51 49 47 44 49 50 51 51 49 47 47 49
54 53 53 55 56 58 57 56 56 55 54 55 55 55 56 56 58 59 60 60 59 58 57 57 56 55 54 54 52 51 51 49 47 46 45 46 47 50 48 48 47 48 48

GFSSE_sfc_temp_060.txt.gz
Temp
69 71 73 74 74 74 73 74 74 74 75 75 75 75 75 75 75 75 75 76 76 77 77 77 76 76 76 75 74 74 73 73 73 74 75 75 75 75 74 74 73 73 74
71 72 72 73 74 74 74 74 74 75 75 75 75 75 75 75 75 75 75 76 76 77 77 76 76 75 75 74 73 72 73 73 72 73 74 75 75 74 74 73 73 73 74
70 72 73 73 73 74 74 74 75 75 75 75 75 75 75 75 75 75 75 75 76 76 76 76 75 75 74 73 72 72 71 71 71 71 71 69 71 73 73 73 73 73 73
71 71 71 73 73 74 74 74 74 75 75 75 75 75 75 75 75 75 75 75 75 76 77 76 76 74 73 72 71 71 70 70 69 69 66 67 72 73 73 72 72 73 72
68 69 71 72 73 73 73 74 74 74 74 74 74 75 75 75 75 75 74 74 75 76 76 76 75 73 71 70 70 70 70 69 68 65 62 64 69 71 72 72 71 70 70
64 68 68 69 71 73 73 73 74 73 73 73 74 74 75 75 75 74 74 74 75 75 75 74 73 71 70 69 69 69 68 67 65 60 62 68 67 72 72 70 70 70 70
64 65 68 68 70 71 72 73 73 73 73 73 73 74 74 75 75 74 74 74 74 74 74 73 71 70 69 69 69 68 67 66 61 59 61 63 67 71 71 70 70 69 69
63 65 67 70 70 71 72 72 72 72 72 73 73 73 74 74 73 73 73 73 72 72 72 71 70 70 69 69 68 67 66 66 62 60 61 65 70 71 70 70 69 68 68
64 65 67 68 70 69 70 69 69 69 72 72 72 72 72 71 71 72 71 71 71 71 71 70 70 69 69 68 67 66 65 65 59 61 64 64 70 70 70 69 69 68 68
65 65 65 66 65 64 64 66 66 67 70 71 71 70 69 70 70 70 70 71 71 71 70 70 69 69 68 68 67 66 65 64 59 60 61 67 70 70 70 69 69 68 67
64 64 65 64 63 63 63 65 65 67 71 69 70 69 67 67 66 65 69 70 70 69 69 69 69 68 67 67 66 65 63 59 59 60 61 69 70 70 70 69 68 67 67
61 63 64 63 62 62 62 62 63 66 67 69 69 67 66 63 63 66 68 68 68 68 68 67 68 67 64 60 62 63 58 58 58 59 61 68 70 70 69 68 68 67 67
61 62 62 62 62 61 61 62 66 68 65 68 68 66 64 64 64 63 64 64 65 66 65 65 64 62 59 58 58 58 58 57 57 59 64 68 70 70 70 69 68 67 67
61 61 61 62 61 61 64 64 67 69 67 63 64 65 64 64 61 60 61 59 59 59 59 61 60 59 58 59 58 57 57 56 56 57 62 66 68 70 70 69 68 67 66
60 60 60 60 59 61 62 64 64 65 64 63 64 65 66 63 61 60 61 61 59 59 58 59 59 59 58 57 58 57 56 55 55 56 57 65 66 69 70 69 68 68 67
59 59 60 60 60 60 60 61 61 62 61 62 63 63 64 63 61 63 61 59 58 58 59 60 59 58 58 58 56 56 55 55 55 55 56 59 64 66 68 70 69 68 68
59 59 59 60 60 61 61 61 61 62 62 61 61 61 61 61 61 60 59 58 57 58 58 59 58 58 56 58 57 56 55 55 55 55 55 56 59 64 65 67 68 68 68
58 58 59 60 60 60 61 60 61 62 62 62 60 61 61 62 61 59 58 59 57 57 58 57 57 56 57 56 55 55 55 55 55 55 55 55 55 58 61 64 66 67 67
59 58 58 58 59 59 60 60 60 61 62 61 62 62 61 63 61 61 59 59 58 57 57 58 56 57 56 56 56 55 54 54 54 57 54 54 55 56 56 61 63 64 65
57 58 57 57 57 58 59 58 58 60 60 62 62 62 62 63 62 61 59 59 59 58 57 57 56 56 56 56 59 57 53 52 52 52 53 56 54 55 55 56 57 59 62
57 57 57 56 56 57 59 58 57 57 59 60 61 62 63 62 62 61 60 60 59 58 58 58 56 55 54 54 53 52 52 51 51 51 52 52 53 53 53 54 54 54 57
55 57 57 58 57 57 59 63 59 57 59 61 61 62 63 62 61 60 60 59 59 58 57 56 56 53 54 52 52 50 49 51 50 51 50 50 50 52 53 53 52 52 52
55 56 57 58 58 58 58 58 59 59 57 59 59 60 61 62 61 61 60 59 58 58 57 55 55 55 53 50 52 53 48 47 48 49 49 49 51 51 51 52 52 52 52
56 57 58 59 59 60 59 58 59 61 57 59 59 61 61 61 59 61 59 58 58 57 56 56 56 55 53 51 50 52 52 52 49 48 49 50 52 52 51 51 51 52 52
57 57 57 56 59 60 58 59 56 53 57 57 59 59 59 58 58 58 59 58 57 57 57 56 55 53 53 51 50 49 50 50 50 49 47 49 50 51 52 50 50 50 50
52 53 56 53 55 57 57 57 56 55 54 54 54 54 55 55 56 57 58 57 57 57 57 57 55 55 55 55 53 52 51 49 48 48 46 47 48 50 51 51 49 49 50

GFSSE_sfc_temp_063.txt.gz
Temp
74 78 73 75 74 75 75 75 75 75 75 75 75 75 75 75 76 76 76 76 76 77 78 77 77 77 77 76 75 74 74 74 74 75 75 76 76 75 75 75 75 78 74
77 78 73 74 74 74 75 75 75 75 75 75 75 75 75 75 75 75 76 76 76 77 77 77 76 76 75 74 74 73 73 72 73 74 75 75 75 75 74 73 74 76 73
75 78 77 73 74 74 75 75 75 75 75 75 75 75 75 75 75 75 75 75 76 77 77 76 76 75 74 73 72 72 72 71 71 72 74 76 78 74 74 73 73 73 73
76 78 77 73 73 74 74 75 75 75 75 75 75 75 75 75 75 75 75 75 76 76 76 76 75 75 73 72 71 71 71 70 70 72 79 79 78 73 73 73 73 73 72
76 77 76 72 73 74 74 74 75 75 74 74 74 75 75 75 75 75 75 75 75 76 76 76 74 73 71 70 70 70 70 70 70 75 78 75 73 74 72 71 71 71 71
70 73 71 71 72 73 74 74 74 74 73 74 74 75 75 75 75 75 74 75 76 76 76 75 73 71 70 69 69 69 69 69 72 78 77 75 76 72 72 71 70 70 70
69 73 73 68 71 73 74 74 73 73 73 73 74 74 74 75 74 74 74 74 75 75 75 73 71 70 69 69 69 68 67 69 76 76 76 76 74 72 72 71 70 70 69
69 72 73 70 71 72 73 73 72 72 72 73 73 73 74 73 73 73 73 73 73 73 72 71 70 70 69 69 68 67 67 69 75 75 76 76 71 71 71 70 69 69 69
68 67 70 71 71 70 70 72 71 71 72 72 72 72 72 72 72 72 72 72 72 71 71 70 70 69 69 68 67 66 65 68 75 75 76 76 71 71 71 70 69 68 68
66 67 71 69 70 70 71 67 70 71 70 71 71 71 70 71 71 71 70 71 71 71 70 70 69 69 68 67 66 66 65 67 75 75 76 74 70 71 70 69 69 68 68
65 68 68 66 67 69 69 68 69 69 70 70 70 69 69 75 73 73 71 69 70 70 70 69 69 68 67 67 66 65 67 74 74 75 76 69 70 71 70 69 68 68 67
62 64 64 64 64 65 65 65 66 67 67 69 70 71 71 70 71 75 71 68 68 69 69 68 68 67 70 73 71 67 73 72 73 74 75 69 70 70 69 69 68 67 67
62 63 64 61 61 61 60 60 62 64 65 67 68 69 70 70 70 73 72 73 71 70 74 72 71 73 71 72 72 71 71 71 73 74 71 68 70 70 70 69 68 67 67
61 62 61 61 61 60 60 60 62 66 64 64 66 70 70 68 70 69 72 71 71 72 71 72 71 70 70 71 70 69 70 72 72 74 71 67 69 70 70 69 68 67 67
61 61 61 62 62 61 61 61 61 65 65 64 66 70 69 68 67 70 69 72 71 71 71 69 70 70 69 70 70 70 69 69 70 73 74 66 67 69 70 70 69 68 67
60 60 60 61 61 62 61 63 64 65 64 63 66 69 70 68 67 68 69 70 70 72 72 72 71 70 71 70 68 69 68 69 70 70 72 72 65 67 69 69 69 69 68
60 59 59 59 61 61 64 62 62 63 65 63 67 69 69 67 68 70 70 69 67 68 69 69 68 69 68 69 68 67 67 67 68 68 70 71 70 64 66 68 69 68 68
60 59 60 61 60 61 62 60 63 63 65 64 63 67 68 69 69 67 67 67 67 67 70 69 68 68 67 67 67 67 67 68 67 67 68 69 70 71 66 65 66 68 67
59 59 59 60 60 61 61 60 61 62 64 63 64 64 67 68 68 68 68 66 66 66 67 68 67 67 66 66 67 67 67 67 66 67 66 65 67 69 71 64 64 64 66
59 59 59 60 60 61 59 61 60 60 64 63 64 65 68 67 66 67 67 66 66 65 65 67 65 66 66 66 67 66 65 65 65 64 66 67 67 66 67 67 69 69 62
58 58 58 57 58 60 58 58 58 58 64 65 64 64 67 67 67 67 66 66 66 66 65 64 64 64 63 64 63 64 64 62 62 65 65 66 66 65 66 67 68 71 70
58 58 58 58 58 59 60 62 62 62 64 64 65 65 67 65 67 68 67 66 66 65 64 64 64 63 66 64 64 64 61 62 62 64 64 64 62 66 65 63 63 60 64
58 58 59 59 58 58 60 59 58 59 59 62 63 66 66 66 67 67 67 64 64 65 63 64 64 63 63 62 64 66 59 59 63 63 61 62 63 63 61 55 57 64 64
60 62 61 60 59 58 60 59 60 62 59 63 63 67 64 65 66 66 64 63 64 64 63 63 63 64 64 63 60 64 63 64 61 60 63 56 55 61 53 55 62 59 57
61 61 61 60 62 60 60 61 60 60 63 60 60 63 64 64 65 65 63 65 64 66 65 65 64 63 64 64 63 60 60 62 61 56 54 55 52 59 54 55 61 58 57
60 61 61 60 62 61 60 61 60 60 59 59 58 59 60 63 62 64 65 64 65 65 65 65 65 64 63 63 62 60 61 54 58 53 52 55 50 53 60 59 57 53 55

GFSSE_sfc_temp_066.txt.gz
Temp
85 87 73 75 75 76 75 75 74 75 75 76 76 76 76 76 76 75 76 76 77 77 78 77 77 77 77 76 75 75 75 74 75 75 75 76 76 76 76 75 76 80 74
87 87 73 74 75 76 75 75 75 75 75 76 76 75 75 75 75 76 76 76 77 77 77 77 77 76 75 75 73 73 73 73 73 74 75 75 75 75 74 73 74 77 73
83 86 81 73 74 75 75 75 75 75 76 76 75 75 75 75 75 75 75 76 76 77 77 77 76 76 74 73 73 73 72 73 73 74 77 83 77 74 74 73 73 73 73
83 84 81 73 74 75 75 75 75 76 76 75 75 75 75 75 75 75 75 75 76 77 77 77 76 75 73 72 72 72 72 72 73 74 85 84 81 73 74 73 73 73 72
84 86 82 73 73 74 74 74 75 75 75 75 75 75 75 75 75 75 75 75 76 76 76 76 75 73 71 71 71 71 71 72 73 81 85 82 81 75 73 73 72 71 71
83 86 75 71 72 74 74 74 74 74 74 74 74 75 75 75 75 75 74 75 75 76 76 75 73 71 70 70 70 70 71 71 74 84 82 79 78 73 72 71 71 71 70
78 79 80 71 72 70 75 74 74 73 73 73 74 74 75 75 75 74 74 74 75 75 74 73 71 70 70 69 69 69 69 71 84 84 82 80 76 72 72 71 70 70 70
72 77 80 73 70 70 73 73 72 72 73 73 73 74 74 74 73 74 74 74 74 73 72 71 70 70 69 69 68 68 69 72 82 83 82 80 72 72 71 70 70 69 69
70 73 76 78 75 70 73 70 70 71 72 72 73 73 73 72 72 72 72 72 72 71 71 70 69 69 69 68 68 67 67 70 83 82 81 79 71 71 71 70 69 69 68
72 69 74 75 74 78 78 68 70 71 70 71 72 71 70 71 71 71 71 71 71 71 70 69 69 69 68 67 67 66 67 70 83 83 81 77 71 71 71 70 69 68 68
71 74 74 74 74 73 81 75 71 72 71 70 71 69 69 76 76 75 73 70 70 69 69 69 68 68 67 67 66 67 67 82 82 82 79 69 71 71 70 69 68 68 68
66 67 71 70 72 71 70 74 74 70 69 69 70 71 74 73 76 78 73 69 68 68 68 68 67 67 70 77 75 69 82 80 81 81 78 69 71 71 70 69 68 68 67
68 68 69 68 66 66 69 64 66 65 66 67 69 70 72 72 78 77 76 75 76 71 77 74 73 80 79 79 78 80 78 79 81 80 73 68 70 71 70 69 68 68 67
66 65 64 65 62 62 62 63 63 62 63 64 67 69 70 72 74 74 78 79 78 79 77 77 79 79 78 78 78 77 78 80 81 80 73 67 69 70 70 69 68 68 67
67 63 65 61 61 61 61 62 62 63 63 64 65 68 74 73 72 73 77 80 80 81 79 78 79 78 77 77 78 77 77 78 78 80 77 66 68 69 70 70 69 68 67
65 64 62 62 61 61 60 62 62 62 63 63 64 68 71 73 71 74 75 77 78 80 80 80 78 78 78 78 76 77 76 77 77 78 78 73 66 67 69 69 69 69 68
64 62 62 61 61 60 60 61 61 62 64 63 64 70 74 74 73 74 75 75 78 80 79 79 78 79 78 78 76 76 76 75 76 76 77 77 72 64 67 68 69 69 68
62 59 61 62 62 61 61 61 64 63 63 64 64 70 73 73 73 72 73 77 78 77 77 77 77 77 77 77 75 75 76 76 75 74 76 77 76 76 66 66 67 68 68
65 62 60 61 59 61 61 64 64 64 64 64 64 73 73 72 72 71 72 74 74 76 76 76 76 75 74 75 75 75 75 75 74 76 74 73 73 75 77 65 64 65 66
60 62 62 62 59 63 64 62 62 63 63 64 63 72 75 76 74 75 75 72 73 74 75 75 73 74 74 74 76 73 72 73 75 73 74 75 75 73 74 75 72 70 63
59 58 61 59 60 64 63 60 60 60 63 63 64 66 71 72 71 73 73 71 72 73 74 73 72 70 70 72 71 71 70 70 71 74 74 73 74 73 73 73 75 76 72
60 61 59 61 64 64 64 64 69 65 66 65 66 65 68 71 68 68 71 71 73 73 71 71 71 69 71 70 70 71 66 68 70 71 73 72 71 73 73 71 73 71 67
60 60 61 60 62 66 65 64 64 63 63 64 64 65 67 68 66 67 69 72 72 73 71 70 70 71 68 69 70 69 66 65 72 73 70 72 71 68 63 66 67 66 66
62 62 64 62 60 62 63 61 64 61 60 70 69 66 66 68 66 68 70 72 69 68 68 69 71 70 67 68 70 72 73 73 68 67 71 70 71 67 61 59 57 58 67
68 64 66 65 62 61 61 61 60 61 64 66 66 68 64 65 67 68 68 69 67 68 69 68 67 69 71 69 71 71 69 70 69 66 65 66 67 64 58 53 59 63 66
69 68 67 67 65 61 60 61 61 64 65 66 62 63 63 62 65 64 65 66 67 67 69 68 71 69 71 70 71 71 69 67 65 65 58 64 62 54 54 56 60 61 66

GFSSE_sfc_temp_069.txt.gz
Temp
92 84 74 75 75 75 75 75 74 74 75 75 75 76 75 75 75 75 76 76 77 78 78 77 77 77 77 76 75 75 75 74 75 75 75 76 77 76 76 75 76 78 74
92 87 73 74 75 75 75 75 74 75 75 75 75 75 75 75 75 75 76 76 77 77 77 77 77 76 76 75 74 74 74 74 74 74 75 75 75 75 74 73 74 75 74
90 88 81 74 75 75 75 75 75 75 76 75 75 75 75 75 76 76 75 76 77 77 77 77 76 76 75 73 73 73 74 73 74 75 76 78 77 74 74 73 73 73 73
88 86 86 73 75 75 75 75 75 76 76 75 75 75 75 76 75 75 75 75 76 77 77 77 76 75 73 72 72 73 73 73 74 76 84 80 77 74 74 73 73 73 72
85 86 82 73 74 75 74 75 75 75 75 75 75 75 75 75 75 75 75 75 76 77 77 76 75 73 71 71 71 72 73 73 73 79 85 81 77 74 73 73 73 72 72
85 85 73 72 73 74 74 74 75 74 74 74 74 75 75 75 75 75 74 75 76 76 76 75 73 71 70 70 71 72 72 73 75 85 81 78 77 72 72 71 71 71 71
82 82 77 71 72 72 73 75 74 74 73 74 74 74 75 75 75 74 74 74 75 75 74 73 71 71 70 70 71 70 71 71 85 83 81 77 74 72 72 71 70 70 70
79 83 83 74 71 72 71 70 65 72 73 73 73 74 74 74 73 73 73 73 73 72 72 71 70 70 70 70 69 69 70 71 84 83 80 77 72 72 71 71 70 69 69
78 77 78 79 76 69 67 65 64 66 72 72 72 73 73 72 72 73 73 72 72 71 70 70 70 69 69 69 69 68 69 71 84 81 80 76 71 71 71 70 70 69 68
77 74 78 79 78 76 73 66 67 68 70 71 72 71 71 71 72 71 71 71 71 70 70 70 69 69 68 68 68 68 69 71 83 82 79 75 71 71 71 70 69 69 68
75 75 75 77 76 78 80 77 70 68 71 71 71 69 69 76 76 76 72 70 70 69 69 69 68 68 67 67 68 68 68 84 83 81 77 70 71 71 70 69 69 68 68
73 74 73 73 75 77 75 77 75 70 70 71 73 71 73 73 76 76 71 68 68 68 68 68 67 66 70 76 75 69 80 83 82 79 75 69 71 71 70 69 68 68 67
73 70 71 72 74 73 74 73 70 70 68 68 68 71 70 70 71 74 72 73 72 71 74 72 71 76 78 78 78 80 80 82 82 79 71 69 70 71 70 69 68 68 67
69 73 73 72 70 67 70 68 67 69 66 65 65 66 65 65 68 73 73 75 74 77 74 75 76 80 79 79 80 78 80 82 81 77 71 68 69 70 70 69 68 68 67
71 72 68 64 67 66 64 65 67 64 65 64 64 64 64 64 70 74 73 75 77 79 77 77 80 79 79 79 79 78 80 80 79 78 74 67 68 69 70 70 69 68 67
71 70 66 63 62 63 66 62 63 63 63 63 64 64 65 65 70 74 73 78 79 81 80 80 80 79 79 79 77 78 79 79 80 78 76 71 66 68 69 70 70 69 68
70 68 65 61 62 61 61 62 61 62 62 61 62 64 66 69 72 74 76 76 80 78 80 80 79 80 79 80 77 78 78 78 79 78 76 74 70 65 66 68 69 69 68
67 65 65 63 62 61 61 61 61 62 62 62 62 64 66 71 75 75 76 77 75 79 80 79 78 78 78 78 77 77 78 77 76 76 78 77 74 74 66 66 67 68 68
64 64 63 63 62 61 61 62 62 62 62 62 62 66 68 73 75 76 75 76 77 79 79 78 77 78 76 77 77 77 76 76 75 77 76 76 76 76 74 65 64 65 66
66 64 62 62 61 61 62 62 61 61 61 62 62 66 71 73 72 73 74 73 75 74 75 76 75 77 77 76 77 75 75 76 75 75 74 76 75 74 76 74 70 68 63
61 61 61 59 59 61 61 61 59 59 60 60 62 66 71 75 74 73 73 71 70 71 71 73 74 72 73 75 73 72 72 72 73 74 75 75 74 74 73 74 74 73 70
62 61 62 62 62 61 66 66 65 62 63 64 64 64 74 76 76 75 73 72 72 72 72 72 71 69 71 72 69 68 63 67 70 72 74 73 73 75 73 73 73 72 73
64 64 62 63 64 64 66 67 65 64 63 62 63 62 67 72 73 73 74 71 70 74 72 71 71 71 65 70 70 67 62 62 66 71 70 73 71 72 73 72 70 69 68
65 64 65 64 65 66 67 68 65 66 62 63 64 65 66 68 70 72 72 69 69 74 73 72 73 72 66 62 69 69 71 71 64 59 71 70 72 71 69 71 71 66 62
68 64 64 63 64 66 67 68 64 62 70 65 65 64 64 66 68 70 66 65 65 70 70 70 69 68 66 64 64 68 70 71 71 66 64 66 68 72 71 70 67 63 61
73 67 65 62 62 64 66 65 64 64 67 63 63 66 63 64 69 69 65 64 66 66 68 67 65 66 66 68 69 70 70 68 67 66 64 65 63 63 59 62 61 60 64

GFSSE_sfc_temp_072.txt.gz
Temp
81 78 74 75 75 75 74 74 74 74 75 75 75 75 75 75 75 75 75 76 77 77 78 77 77 77 77 76 75 75 74 74 74 75 75 76 77 76 76 75 74 74 74
82 79 74 75 75 75 75 74 74 74 75 75 75 75 75 75 75 75 76 76 77 77 77 77 77 77 76 75 74 74 74 74 74 74 74 75 75 75 74 74 73 73 74
84 80 78 74 75 75 75 75 75 75 75 75 75 75 75 75 75 75 76 76 76 77 77 77 76 76 75 74 74 74 74 74 74 74 75 73 73 74 74 73 73 73 73
87 80 80 74 74 75 74 74 75 75 75 75 75 75 75 75 75 75 75 75 76 76 77 77 76 75 74 73 73 74 74 74 74 75 74 75 75 74 74 73 73 73 73
85 87 81 74 74 74 74 74 75 75 75 75 75 75 75 75 75 75 75 75 76 76 76 76 75 73 72 72 72 72 73 73 73 77 72 72 72 74 74 73 72 72 71
84 86 72 72 73 74 74 74 75 74 74 74 75 75 75 75 75 75 74 75 76 76 75 75 73 72 71 71 72 72 72 72 72 74 72 71 71 72 72 72 71 71 71
82 82 76 71 72 73 74 74 74 74 73 74 74 74 75 75 75 74 74 74 75 75 74 73 72 71 71 71 71 71 71 71 76 73 70 69 70 72 72 71 70 70 70
80 79 79 73 72 71 73 71 68 66 68 73 73 74 74 74 73 73 73 73 73 72 72 71 70 70 70 70 70 70 69 70 76 72 70 68 71 72 71 70 70 69 69
78 77 76 74 70 70 68 67 67 65 65 69 72 73 72 72 72 72 72 72 71 71 70 70 69 70 70 69 69 69 69 72 74 72 72 68 71 71 71 70 70 69 69
76 75 74 75 72 68 66 66 65 65 67 69 71 71 70 71 71 71 71 71 70 70 70 69 69 69 68 68 68 69 68 73 74 72 69 68 71 71 71 70 69 69 68
74 75 73 72 73 72 66 66 67 66 66 65 71 70 69 72 71 70 70 69 69 69 68 68 68 67 67 68 68 68 68 75 73 70 68 69 71 71 70 69 69 68 68
72 72 71 70 71 71 70 66 65 66 64 66 70 70 72 71 70 71 69 68 68 67 67 67 67 67 69 66 66 67 67 75 72 69 67 69 71 71 70 69 68 68 68
74 71 69 70 69 69 68 67 67 65 63 64 69 70 71 70 68 67 67 67 66 66 66 66 66 68 67 67 67 67 69 74 71 69 67 68 70 71 70 69 68 68 67
72 71 70 69 69 69 68 67 67 66 66 66 67 68 67 65 66 65 68 66 66 67 66 66 66 67 67 69 69 70 71 73 69 67 65 67 69 71 70 69 68 68 67
71 69 68 68 67 65 66 66 67 66 65 64 64 64 65 65 64 66 68 68 68 68 68 66 67 70 68 69 69 70 73 72 69 67 65 66 68 69 70 70 69 68 67
70 68 67 65 65 65 63 64 65 65 63 63 63 63 64 64 64 64 68 68 69 69 70 69 70 69 68 68 68 70 71 72 70 67 66 63 66 67 69 70 69 68 68
69 67 63 63 63 62 63 63 64 63 63 62 62 63 63 64 63 64 66 68 69 71 70 69 70 68 67 70 68 68 69 69 71 68 66 65 63 65 66 68 69 69 68
70 66 63 63 61 61 61 62 62 62 62 62 62 62 63 64 64 64 67 70 71 71 71 70 68 67 66 66 65 65 66 67 68 68 68 66 66 67 64 65 67 68 68
69 65 63 62 62 61 61 61 61 62 61 61 62 63 63 64 66 67 65 67 69 71 68 70 66 66 65 65 66 64 64 64 65 70 67 67 66 67 65 64 64 65 66
67 63 63 63 63 61 61 61 61 60 60 60 61 62 63 64 67 68 66 67 67 67 67 67 66 67 67 65 73 67 64 63 63 63 65 68 67 67 67 66 64 64 63
64 61 62 61 60 61 60 59 59 58 59 59 60 63 63 65 69 68 66 66 67 66 66 67 66 66 65 65 63 61 62 64 63 63 63 63 65 66 64 64 64 65 64
63 62 61 61 60 61 62 61 61 61 61 61 61 63 65 66 68 67 66 66 66 66 65 65 65 62 63 64 61 59 56 58 60 62 62 64 62 65 65 65 64 64 65
63 62 60 61 62 63 64 63 62 62 59 59 61 61 63 68 68 68 66 66 65 65 65 65 64 63 59 62 63 59 54 53 56 60 61 61 61 60 61 63 63 63 63
64 65 63 62 62 63 65 63 61 59 57 60 62 63 62 65 68 69 68 67 66 66 65 63 65 64 62 59 60 63 61 60 56 53 57 61 61 61 60 59 61 61 61
66 65 64 64 63 64 64 64 62 61 62 63 63 63 61 62 65 67 66 65 65 65 64 63 63 63 63 59 60 58 59 60 59 56 52 56 59 61 60 59 59 59 60
67 65 64 64 63 64 64 64 64 63 62 61 61 61 61 62 63 64 65 65 63 64 64 63 63 63 60 60 61 60 59 59 58 55 54 55 55 57 58 59 60 56 58

GFSSE_sfc_temp_075.txt.gz
Temp
73 73 74 74 75 74 74 74 74 74 75 75 75 75 75 75 75 75 76 76 77 77 78 77 77 77 77 76 75 75 75 75 75 75 76 76 76 76 75 74 74 74 75
74 75 73 74 75 74 74 74 74 74 75 75 75 75 75 75 75 75 76 76 77 78 78 77 77 77 76 75 74 74 74 73 73 74 75 76 75 75 75 73 73 73 74
74 74 75 73 74 75 75 74 75 75 75 75 75 75 75 75 75 75 75 76 77 77 77 77 77 77 75 74 74 74 73 73 72 73 73 73 73 74 74 73 73 73 73
75 74 73 73 74 74 74 74 75 75 75 75 75 75 75 75 75 75 75 75 76 76 77 77 77 76 75 74 73 74 73 73 73 73 72 73 74 74 73 73 73 73 72
75 76 74 73 73 74 74 74 74 75 74 74 75 75 75 75 75 75 74 75 76 77 77 77 76 75 73 73 73 73 73 72 71 72 72 71 71 73 73 73 72 72 72
78 77 71 72 72 73 74 74 74 74 73 74 74 75 75 75 75 75 74 75 75 76 76 75 74 73 71 71 72 72 71 72 70 68 68 71 71 72 73 72 72 72 71
74 71 73 71 72 73 74 74 74 73 73 73 74 75 75 75 75 74 74 74 75 75 74 74 73 72 71 71 71 70 71 71 68 66 66 70 70 72 72 71 71 71 70
73 71 71 72 72 72 73 74 72 67 66 65 66 73 74 74 73 73 73 73 73 72 72 71 71 71 70 70 70 69 71 70 69 66 65 68 71 72 72 71 70 70 70
72 70 69 69 71 69 68 68 66 67 66 65 66 71 72 72 72 73 73 72 71 71 71 70 70 70 70 69 69 68 69 69 67 67 68 67 71 71 71 70 70 69 69
70 69 70 69 67 66 65 66 66 66 66 66 65 67 69 70 71 71 71 70 70 70 70 70 69 69 69 69 69 69 69 68 67 64 63 68 71 71 71 70 69 69 69
67 68 68 68 65 64 64 65 67 68 67 66 66 64 67 70 69 69 69 69 69 69 69 69 68 68 68 68 68 68 69 68 66 65 62 69 71 71 70 69 69 69 68
65 66 66 66 66 65 66 64 63 64 64 65 65 63 68 68 68 68 68 68 68 68 68 68 67 67 67 64 65 67 69 67 66 65 64 69 70 71 70 69 69 68 68
65 65 65 66 64 66 65 63 63 62 62 64 63 63 67 67 66 66 66 66 66 66 66 66 66 64 65 64 64 64 68 66 66 66 66 68 70 70 70 69 68 68 68
64 64 64 65 65 64 65 63 64 62 62 62 64 67 66 65 64 63 64 63 63 63 62 61 60 64 65 66 66 65 67 65 64 63 64 67 69 70 70 69 68 68 67
63 62 60 61 63 64 64 64 65 64 63 63 64 66 66 65 63 63 64 63 60 63 63 62 61 64 65 65 66 68 66 64 64 64 60 66 67 69 70 69 69 68 67
62 60 60 59 60 64 62 64 65 65 65 64 64 65 66 64 63 62 65 63 61 62 64 64 64 63 63 64 65 67 66 65 64 63 60 62 65 68 69 69 69 68 68
61 59 59 59 59 62 61 63 64 64 64 63 63 63 65 65 64 63 64 66 65 65 65 65 64 65 62 65 65 64 68 65 64 63 62 60 63 64 66 68 68 68 68
60 59 59 62 59 60 62 63 63 63 64 63 63 63 64 65 65 64 65 66 66 66 66 65 65 65 62 62 61 62 63 65 64 63 63 62 60 64 64 65 67 68 68
62 60 57 58 60 60 60 62 63 62 62 63 62 62 63 65 65 66 64 64 66 67 64 67 64 64 62 61 62 60 60 62 63 65 63 62 61 62 62 63 64 65 66
61 61 59 59 60 60 60 61 61 60 61 61 61 62 63 65 65 66 64 64 64 64 61 67 65 62 64 64 69 63 60 60 61 62 63 64 62 63 64 64 63 63 63
60 60 60 59 59 60 59 59 59 58 59 60 61 62 63 64 65 65 65 62 62 62 62 64 62 62 60 62 59 57 59 60 60 60 59 62 63 64 62 63 63 63 63
60 61 60 59 60 60 61 61 61 59 59 61 62 62 64 64 65 65 65 63 62 61 61 60 62 59 60 61 59 57 55 57 57 58 58 60 58 61 62 63 62 62 62
58 60 60 60 60 61 62 62 61 61 59 58 60 61 63 65 65 66 66 64 63 63 62 61 61 61 59 60 64 57 52 51 53 57 57 57 58 57 59 59 60 61 61
58 61 61 61 61 62 62 61 59 58 56 59 60 62 63 64 64 65 64 62 63 64 63 60 61 61 59 57 58 61 59 57 52 51 56 56 57 58 56 56 59 60 61
59 60 59 61 61 62 62 62 60 58 60 61 61 61 61 62 64 65 64 62 60 60 60 60 60 60 59 57 58 57 57 57 56 54 52 54 57 57 59 59 60 61 62
60 62 61 60 61 62 62 61 60 60 59 59 60 60 60 61 61 64 62 61 60 59 60 61 60 60 59 59 59 58 57 56 55 53 51 52 53 54 57 59 59 59 58

GFSSE_sfc_temp_078.txt.gz
Temp
72 72 73 74 74 74 74 74 74 74 75 75 75 75 75 76 76 76 76 76 77 78 78 77 77 77 77 77 76 75 75 75 75 75 75 76 76 76 75 74 74 74 74
72 73 72 74 74 74 74 74 74 74 75 75 75 75 75 75 75 76 76 76 76 78 78 77 77 77 76 75 74 74 74 74 74 74 75 76 76 75 75 74 73 73 74
72 73 73 73 74 74 74 74 74 75 75 75 75 75 75 75 75 75 76 76 76 77 78 78 77 76 75 74 73 73 73 73 72 73 74 73 73 75 74 73 73 74 74
73 73 73 73 73 74 74 74 74 75 75 75 75 75 75 75 75 75 75 75 76 77 77 78 77 76 74 73 73 72 72 72 72 72 72 72 74 74 74 73 73 73 73
72 73 73 72 73 74 74 74 74 74 74 74 74 75 75 75 75 75 74 74 76 77 78 78 76 74 73 72 72 72 72 72 71 71 70 70 71 73 73 72 72 72 72
72 73 71 71 72 73 74 74 74 74 73 73 74 75 75 75 75 74 74 75 76 76 76 76 75 73 72 72 71 71 70 70 69 70 70 71 71 73 73 72 71 71 72
70 70 71 70 72 73 74 74 74 73 73 72 73 74 75 75 74 74 74 74 75 75 75 74 73 71 71 70 70 70 69 68 65 64 69 70 70 72 73 72 71 71 71
68 69 70 72 72 72 73 73 70 68 69 68 68 67 71 74 73 73 73 73 73 73 73 72 71 71 70 70 70 69 68 68 67 63 70 70 70 71 72 72 70 70 70
69 68 68 69 71 71 71 70 67 67 66 66 65 67 66 69 72 73 73 72 72 72 71 71 70 70 70 70 69 68 67 67 65 65 67 70 72 72 72 71 70 70 70
67 68 67 69 67 66 66 68 67 67 68 67 67 65 67 68 69 71 71 71 71 71 70 70 70 70 69 69 68 67 67 67 62 61 61 68 71 72 71 71 70 69 69
66 66 67 66 66 65 64 65 67 68 67 67 67 66 65 67 69 69 70 70 70 70 69 69 69 68 68 69 68 67 67 65 64 62 62 69 71 71 71 70 69 69 69
63 64 65 64 64 64 65 64 63 64 65 65 64 63 67 66 68 69 69 68 68 68 68 68 68 67 67 67 68 67 65 65 64 62 64 69 70 71 70 69 69 69 69
63 63 64 63 63 63 63 62 61 61 63 63 63 63 66 66 66 67 66 67 66 67 66 64 65 63 64 64 66 64 64 64 63 64 66 68 70 71 70 69 69 69 68
62 62 63 63 63 63 63 62 62 61 63 63 63 63 62 65 65 65 66 65 64 65 62 61 60 61 62 64 66 63 64 63 62 61 65 67 69 70 70 70 69 68 67
60 60 60 61 62 64 63 63 63 61 61 62 63 64 63 65 64 64 65 61 60 59 60 61 61 63 62 63 66 64 63 62 62 62 60 65 67 69 70 70 69 68 68
60 58 58 59 60 63 64 63 63 61 62 62 64 63 65 65 63 61 61 61 59 59 60 59 58 60 61 62 65 63 63 62 63 60 60 63 65 67 69 69 69 68 68
60 58 58 58 59 61 63 64 64 63 63 63 65 65 64 63 62 62 62 62 62 57 57 58 59 60 60 63 64 62 62 62 62 61 60 59 62 64 65 68 68 68 68
58 57 58 60 58 61 61 63 64 64 63 64 64 65 64 64 63 62 63 63 63 62 61 58 59 58 60 60 62 62 61 61 61 61 60 59 58 61 63 65 67 67 67
58 57 56 57 59 60 61 62 63 64 63 64 65 64 64 65 64 64 64 64 64 64 62 62 59 60 59 58 62 60 60 59 59 62 60 59 58 60 60 63 64 64 66
58 57 57 58 60 60 61 61 62 62 62 63 63 63 64 65 65 65 63 62 63 63 60 61 61 60 61 59 66 60 58 58 58 58 60 62 60 60 59 60 61 63 63
57 57 57 57 59 59 60 59 59 59 60 61 62 63 64 65 65 65 65 62 63 62 62 62 61 61 56 58 56 55 56 57 58 59 58 60 59 59 58 60 61 62 63
58 57 58 58 59 60 60 60 60 60 60 61 61 62 64 64 65 65 65 63 63 61 59 58 60 57 57 60 58 54 52 55 57 58 57 58 57 60 60 61 61 61 61
58 57 59 59 59 59 60 61 60 59 58 58 59 60 61 63 65 65 64 64 63 63 60 57 58 62 57 57 61 55 51 51 53 54 55 55 55 56 60 60 60 60 61
57 58 59 60 60 60 60 60 59 58 56 58 60 61 61 62 63 63 63 63 62 63 60 60 60 58 57 58 56 59 58 56 51 50 54 55 55 56 56 56 59 60 60
57 57 60 60 60 61 61 59 60 58 60 59 60 59 60 61 61 63 62 62 62 62 60 60 60 58 58 56 59 56 56 56 55 52 49 52 53 55 58 58 58 58 59
56 57 60 60 60 61 61 60 59 59 59 58 58 58 59 61 61 61 61 62 62 62 61 61 61 60 58 58 57 57 57 55 53 52 50 51 51 54 55 56 55 57 58

GFSSE_sfc_temp_081.txt.gz
Temp
70 70 73 74 74 74 74 74 74 74 75 75 76 76 76 76 75 75 76 76 77 77 78 78 77 77 78 77 76 75 75 75 75 75 76 76 76 76 75 74 74 74 75
71 71 72 73 74 74 74 74 74 74 75 75 75 75 75 75 75 75 76 76 77 78 78 77 77 77 77 76 75 74 74 74 74 74 75 75 75 75 75 73 73 73 74
70 71 72 72 73 74 74 74 74 75 75 75 75 75 75 75 75 75 75 76 77 77 77 77 77 76 76 74 74 74 73 73 73 73 74 72 73 75 74 74 73 74 74
71 71 72 72 73 74 74 74 74 75 75 75 75 75 75 75 75 75 75 75 76 77 77 77 77 76 74 73 72 72 72 72 72 72 72 72 74 75 75 74 74 74 74
71 73 72 72 72 73 73 74 74 74 74 74 74 75 75 75 75 75 74 75 75 77 77 77 76 74 72 72 72 72 71 71 70 70 68 69 70 74 74 74 73 72 72
70 72 71 71 72 73 73 74 74 74 73 73 74 75 75 75 75 75 74 75 76 76 77 77 74 73 71 71 71 71 70 70 69 68 69 71 71 73 73 71 71 72 71
68 69 71 70 71 73 74 74 73 73 72 73 73 74 74 74 75 74 74 74 75 76 76 74 73 72 71 70 70 69 69 69 68 69 69 70 70 72 72 71 72 71 70
68 68 71 71 71 72 73 72 71 69 70 70 69 70 73 73 72 73 73 74 74 74 73 72 72 71 71 70 69 68 67 68 67 68 69 69 71 72 72 71 71 71 70
67 67 68 71 72 71 70 70 69 68 67 67 67 68 68 69 69 71 72 72 73 72 72 71 71 70 70 69 68 67 66 67 63 65 69 68 71 72 72 71 70 70 70
66 66 66 68 70 71 69 67 68 67 67 67 66 65 67 68 68 69 71 72 71 71 70 70 70 70 69 68 67 66 66 66 61 62 66 70 72 72 72 71 70 70 69
64 65 65 66 66 67 67 67 67 68 68 68 67 66 65 65 67 67 70 69 70 69 70 70 69 69 68 67 67 66 66 63 62 59 62 70 71 72 72 70 70 69 70
62 63 64 63 64 63 66 66 66 66 66 65 65 64 65 65 66 66 68 67 68 68 68 68 67 68 67 66 65 66 63 62 61 61 62 69 71 72 71 70 69 69 69
63 62 63 63 63 63 64 65 64 64 63 62 62 64 65 66 66 66 66 66 66 67 67 67 65 66 66 65 61 61 63 62 61 61 65 68 70 71 71 70 69 69 68
61 62 62 62 63 63 63 62 63 63 63 62 61 62 65 64 64 65 66 65 64 63 60 64 63 63 65 65 61 61 62 61 60 59 65 67 69 71 71 70 70 69 68
60 61 60 61 63 63 62 62 61 62 62 63 62 62 65 63 64 65 66 65 63 61 61 59 59 63 63 62 61 63 61 61 60 61 61 65 67 69 70 70 70 69 68
60 59 59 60 60 64 62 62 61 61 63 63 62 62 64 65 65 64 65 62 61 63 62 61 61 61 62 62 60 62 62 61 60 58 60 63 65 67 69 70 70 69 68
60 59 58 58 59 64 63 62 62 61 62 62 62 63 63 65 64 64 63 60 60 61 60 58 58 58 60 64 61 61 61 60 60 59 58 58 62 64 65 68 68 68 68
58 57 57 59 58 61 63 63 63 61 62 62 64 63 63 64 65 63 61 60 61 59 59 60 58 56 60 61 60 58 60 60 59 58 58 58 57 60 63 65 66 67 67
58 56 56 56 56 60 62 63 63 62 63 63 64 63 63 62 63 63 62 60 61 61 60 61 58 58 57 58 60 57 58 58 57 60 57 57 57 57 58 63 64 64 66
57 56 57 57 59 60 61 62 62 63 63 63 64 63 62 61 62 63 62 59 61 61 58 59 61 57 59 59 63 57 55 56 56 55 56 59 57 58 58 58 59 61 63
55 55 57 58 59 60 60 59 60 60 61 63 63 63 62 62 63 63 62 59 60 60 60 62 59 58 55 58 56 53 54 55 55 56 56 56 57 58 56 58 58 58 61
56 55 56 58 59 60 60 60 60 60 60 62 62 62 63 62 64 64 63 62 61 60 59 59 58 55 54 56 56 53 50 53 54 56 56 58 58 58 58 59 58 59 59
58 57 58 57 58 59 60 60 59 59 59 59 60 60 61 62 63 64 64 64 62 63 60 60 59 60 55 54 59 53 49 49 52 53 55 56 56 55 58 59 59 59 59
58 59 60 56 59 60 61 59 59 58 57 58 59 60 60 62 62 63 64 62 63 63 61 59 61 62 57 56 54 57 57 55 51 50 54 56 56 55 56 57 58 58 59
59 58 59 57 58 61 60 60 59 57 59 58 59 58 59 59 60 61 61 61 61 62 61 60 58 57 56 55 55 54 55 54 54 52 50 52 52 54 56 56 57 57 59
58 58 56 56 59 59 60 60 60 58 57 57 57 57 57 58 59 59 60 61 61 61 61 60 60 58 57 57 58 56 55 54 53 52 51 50 51 53 55 55 55 57 57

GFSSE_sfc_temp_087.txt.gz
Temp
77 79 73 75 75 74 74 74 74 75 76 76 76 76 76 76 76 76 76 76 77 78 78 78 77 78 78 78 77 76 76 75 75 76 76 77 77 77 76 75 76 80 75
81 79 73 75 75 74 74 74 74 75 76 76 76 76 76 76 75 76 76 77 77 78 78 78 78 78 78 77 75 75 75 74 74 75 75 76 77 76 75 75 76 78 75
77 78 77 74 75 74 74 74 75 76 76 76 76 76 75 75 76 76 76 76 77 78 78 78 78 78 77 75 74 74 74 74 74 74 75 78 78 76 75 74 74 74 75
77 78 78 74 75 74 74 74 75 76 76 76 76 76 76 76 76 76 75 76 77 77 78 78 78 77 75 74 73 73 73 73 72 73 79 78 77 75 75 75 75 75 74
77 78 77 74 74 74 73 74 75 76 75 75 75 76 76 76 76 75 75 76 77 77 78 78 77 75 73 73 72 72 72 72 72 77 79 79 80 76 75 74 74 74 74
76 77 73 73 73 73 73 74 75 74 74 74 75 75 76 76 76 76 75 75 77 77 78 77 75 73 72 71 71 71 71 71 73 81 78 78 78 75 75 74 72 72 72
75 76 74 71 72 73 74 74 73 73 73 74 74 74 75 75 75 75 75 75 75 76 77 75 73 72 71 71 71 70 69 71 80 81 79 79 78 74 74 74 72 71 71
74 75 73 71 72 72 73 73 72 72 72 73 73 74 74 75 75 74 74 74 74 74 74 73 71 71 71 70 70 69 68 71 78 79 79 78 74 73 73 72 71 70 71
72 72 72 73 74 71 70 70 70 71 72 71 71 72 73 73 72 73 73 73 73 73 72 71 71 70 70 69 69 68 67 69 78 79 78 77 72 73 72 71 71 70 70
73 70 71 72 73 73 72 69 69 69 69 70 69 69 69 70 71 71 72 73 73 72 71 71 70 70 69 68 68 67 66 68 78 79 78 75 71 72 72 71 71 70 70
70 71 71 71 73 74 72 70 69 69 69 69 69 68 68 73 73 71 70 70 70 70 70 70 69 68 68 67 67 66 68 77 77 79 77 69 71 72 72 72 70 71 69
66 67 69 70 71 72 70 69 70 71 73 71 71 71 71 71 71 69 69 67 67 68 68 69 68 67 69 75 72 68 76 75 77 77 76 69 71 72 71 71 70 70 70
69 67 68 69 70 70 68 68 67 67 68 69 67 67 69 68 67 67 67 67 67 66 66 69 69 74 73 75 74 74 74 74 75 76 73 68 71 72 71 72 71 71 70
70 69 68 68 68 68 68 68 66 65 66 66 68 65 65 65 64 65 69 69 66 65 66 69 73 72 72 72 72 71 72 74 74 74 73 67 69 71 72 72 70 69 69
71 71 68 68 67 67 66 67 66 66 65 66 66 65 65 66 64 66 69 67 64 63 64 69 71 71 71 71 72 71 71 71 71 74 74 67 68 71 71 71 70 69 69
72 72 71 67 66 67 66 66 66 66 66 65 65 65 65 66 65 66 69 66 66 63 65 69 71 71 71 71 70 71 71 71 71 72 74 72 66 67 69 70 70 69 69
72 72 69 66 66 66 66 65 65 64 65 63 63 65 65 66 66 67 65 66 64 63 67 70 71 71 69 69 70 70 71 71 70 71 72 74 71 64 66 68 69 69 69
72 70 69 66 65 66 66 65 64 63 63 64 63 64 65 66 67 66 64 64 63 62 69 68 69 68 69 69 66 69 68 70 71 70 72 72 72 72 66 66 67 68 68
71 70 67 66 64 64 67 66 64 63 62 63 63 62 65 65 66 65 64 63 62 61 68 69 68 69 68 68 69 69 69 68 69 71 70 70 70 72 71 65 65 65 66
69 69 68 66 64 67 66 65 64 62 62 62 63 64 65 65 66 64 64 60 62 63 66 68 66 68 68 68 68 67 68 69 70 70 70 70 70 70 71 71 70 68 63
66 66 66 64 63 64 63 62 61 60 61 61 63 64 64 64 64 64 62 61 62 64 66 66 66 65 66 68 65 64 64 66 66 68 69 68 67 69 69 70 70 72 70
65 65 64 66 64 64 66 65 64 62 62 63 63 65 64 63 63 62 60 61 62 65 65 64 65 65 66 66 65 64 57 61 65 65 66 67 67 69 68 68 68 69 70
63 63 62 66 65 64 65 64 63 63 62 62 61 62 63 63 63 61 61 62 65 64 64 65 66 66 61 64 66 67 58 60 62 66 65 67 66 66 67 67 65 66 68
63 62 64 65 66 66 66 65 63 62 60 59 62 60 60 61 61 60 62 63 63 63 64 65 66 65 64 62 64 66 68 66 63 58 62 65 66 64 65 66 66 67 68
62 60 61 64 64 64 62 63 62 61 61 62 60 59 58 58 59 60 62 62 62 63 63 63 61 63 66 65 65 63 64 65 64 62 60 60 64 64 65 66 67 67 68
61 60 60 59 63 62 61 62 63 62 61 59 59 58 57 57 58 60 60 60 62 63 62 63 63 62 62 64 66 66 65 64 62 62 62 61 61 64 66 67 66 66 67

GFSSE_sfc_temp_090.txt.gz
Temp
91 91 73 75 75 75 75 75 75 75 76 76 76 76 76 76 76 76 76 77 77 78 79 78 78 78 78 77 77 76 76 75 75 76 76 77 77 77 77 76 77 82 75
93 89 73 75 75 75 75 75 75 75 76 76 76 76 76 76 76 76 76 77 77 78 79 78 78 78 78 77 75 75 75 75 74 75 76 77 77 77 77 76 77 79 75
90 89 80 74 74 74 75 75 75 76 76 76 76 76 76 76 76 76 76 76 77 78 79 78 78 78 77 75 74 75 74 74 74 74 76 84 81 76 75 74 74 75 75
92 90 86 73 74 74 74 74 75 76 77 76 76 76 76 76 76 76 76 76 77 78 78 78 78 77 75 74 74 73 74 73 73 74 83 82 82 75 75 75 74 75 75
90 91 87 73 73 74 74 74 75 75 75 75 75 76 76 76 76 76 75 76 77 77 78 78 77 75 73 73 73 73 73 73 73 79 86 83 80 77 75 75 74 74 75
90 90 76 72 73 73 74 74 75 74 74 74 75 75 76 76 76 76 75 76 77 77 77 77 75 73 72 71 72 72 72 72 72 84 81 79 80 75 75 73 73 73 73
88 88 82 71 72 73 74 74 75 73 73 74 74 75 75 76 75 75 75 75 76 77 77 75 73 72 71 71 71 71 71 71 82 84 82 80 79 75 74 73 73 72 72
86 85 83 74 72 72 73 73 73 73 73 73 73 74 75 75 75 75 74 75 75 75 74 73 72 71 71 70 70 70 70 71 82 81 80 78 74 74 74 73 71 71 71
85 83 78 77 77 70 70 71 70 72 72 72 73 73 74 73 73 73 74 74 74 74 73 72 71 70 70 70 69 68 69 71 84 79 79 79 72 73 73 72 72 71 71
80 81 78 76 78 79 79 69 70 70 71 71 70 71 71 71 72 72 72 73 73 72 71 71 70 70 69 69 68 68 68 70 81 79 79 78 72 73 73 72 72 71 70
80 78 78 76 78 78 80 78 71 70 70 69 70 69 70 79 78 77 71 69 70 70 70 70 69 69 68 68 68 67 68 81 81 79 78 70 72 73 73 71 71 71 71
80 78 74 78 78 76 80 79 78 79 80 79 79 78 79 79 78 76 71 68 68 67 68 68 67 67 70 77 75 69 80 82 81 79 79 70 72 73 73 71 71 70 70
84 77 72 76 76 76 75 75 78 79 80 79 78 79 77 76 75 76 73 70 69 67 68 67 66 72 76 78 78 78 79 81 79 82 72 69 71 73 72 71 71 70 70
85 81 73 73 74 73 75 72 74 72 76 73 77 74 71 71 71 73 69 68 68 68 66 66 67 73 76 77 77 77 79 82 84 84 75 68 70 72 72 71 72 71 70
86 83 77 72 73 73 72 70 69 71 70 73 73 75 73 69 71 70 67 67 71 66 65 65 68 72 75 76 79 79 79 80 80 83 80 67 68 70 72 72 71 70 70
87 84 81 72 72 71 71 71 69 70 70 70 71 70 73 68 69 73 67 68 69 68 66 66 66 71 74 78 78 78 78 79 79 79 80 73 66 68 70 71 71 70 70
86 85 81 74 70 69 70 71 70 71 70 68 69 67 69 67 67 68 67 66 68 69 64 65 69 73 75 79 77 78 78 78 78 78 78 72 71 64 67 69 69 69 69
88 84 83 76 71 70 68 68 70 70 69 67 67 66 65 66 67 71 66 65 67 66 64 64 68 71 73 77 77 77 78 77 76 77 77 73 72 74 66 66 67 68 68
88 84 81 78 71 69 69 67 69 71 69 66 65 65 65 65 66 67 67 65 65 64 62 64 66 72 73 75 76 76 77 77 76 78 77 77 74 74 73 65 65 65 67
88 84 81 79 72 70 69 70 72 69 68 66 64 64 65 65 66 66 65 63 63 62 62 64 68 72 75 75 76 75 75 76 76 75 77 78 77 76 74 72 70 70 64
83 80 80 77 69 69 69 68 69 66 66 64 64 64 65 65 65 65 64 62 62 61 62 66 69 71 73 74 70 68 68 70 71 76 77 77 76 76 76 77 76 77 72
81 79 79 78 69 71 76 77 74 67 67 66 64 64 65 65 66 64 63 62 62 61 61 68 69 70 71 71 67 68 58 62 66 71 76 75 73 76 75 74 76 76 77
78 77 78 78 72 75 77 77 72 67 65 64 62 62 63 65 65 63 62 62 62 62 61 67 70 71 68 70 72 70 62 63 66 69 71 74 73 74 76 75 75 75 75
79 78 77 77 76 75 75 75 71 71 64 64 62 63 63 63 63 62 62 62 62 63 64 68 72 71 70 67 71 76 75 76 67 62 71 71 73 73 73 75 75 74 73
79 75 74 76 76 75 74 75 71 69 70 72 68 62 62 62 62 61 61 62 61 63 66 70 70 70 71 71 70 70 71 73 73 72 67 69 72 74 75 73 74 72 72
77 68 70 74 75 75 74 73 72 70 68 68 62 60 59 58 60 61 61 61 62 63 66 68 68 70 71 71 72 71 70 68 69 71 70 70 69 71 73 74 71 72 74

GFSSE_sfc_temp_093.txt.gz
Temp
99 89 74 75 75 75 75 75 75 75 76 76 76 76 76 76 76 76 76 77 77 78 79 78 78 78 78 77 77 76 76 75 75 76 76 77 78 77 77 76 77 81 75
99 90 73 74 75 75 75 76 75 75 76 76 76 76 76 76 76 76 76 77 77 78 79 78 78 78 78 77 75 75 75 75 75 75 76 77 77 78 77 76 76 77 75
96 90 81 74 74 75 75 76 76 76 76 76 76 76 76 76 76 76 76 76 77 78 78 78 78 78 77 75 74 74 74 74 74 75 77 85 81 76 76 74 74 74 74
96 91 87 73 74 74 75 75 75 76 76 76 76 76 76 76 76 76 76 76 77 78 78 78 78 77 76 74 74 74 74 74 74 74 81 81 80 76 75 74 75 75 74
97 95 88 73 73 74 74 74 75 75 76 75 75 76 76 76 76 76 75 76 77 78 78 78 77 76 74 73 73 73 73 73 74 77 81 79 79 77 75 74 74 74 74
97 97 74 72 72 74 74 74 74 75 74 74 75 76 76 76 76 76 75 76 77 77 78 77 76 73 72 72 72 72 73 73 72 72 80 77 79 75 75 73 73 73 73
95 94 83 71 72 73 74 74 74 74 73 74 74 75 75 76 76 76 75 75 75 77 77 76 73 72 72 71 72 72 72 71 80 76 80 77 77 74 74 73 72 72 72
92 91 85 74 72 72 73 73 74 73 73 73 74 74 75 75 75 75 74 75 75 75 75 73 72 71 71 71 71 71 70 70 78 74 79 77 74 74 74 73 72 71 72
91 88 84 81 78 71 71 71 72 72 72 72 72 73 73 73 73 74 74 75 75 74 73 72 71 70 70 69 70 70 70 70 83 77 77 77 73 74 74 73 72 72 72
88 86 84 83 81 81 79 70 70 71 71 71 71 70 72 72 72 72 72 73 74 73 72 71 70 70 69 68 69 69 69 72 75 79 78 77 73 74 74 73 72 72 71
85 85 83 82 83 84 84 78 71 71 71 70 71 70 70 81 79 77 74 70 71 71 72 70 68 68 68 68 67 68 68 80 79 77 77 70 73 74 73 72 72 71 71
83 82 83 81 81 83 86 82 81 81 81 80 81 81 80 81 80 81 74 68 68 68 68 68 67 67 70 75 73 70 81 77 76 73 76 70 72 73 72 71 71 71 70
87 86 81 81 82 82 84 84 84 82 82 82 81 82 82 82 78 77 74 72 69 69 69 68 66 69 75 75 76 78 78 73 76 73 72 69 72 73 72 72 71 71 70
90 88 81 78 82 79 84 82 85 85 81 80 80 80 80 79 75 75 75 74 72 67 68 67 66 68 71 75 75 78 76 74 82 75 72 68 70 72 72 72 71 71 70
91 90 85 77 81 80 79 79 79 80 84 82 79 78 78 77 74 77 71 76 71 68 66 65 65 66 66 73 73 76 74 78 77 78 77 67 68 70 72 72 72 71 71
92 92 87 81 79 82 79 76 77 76 75 79 80 77 77 76 75 73 74 72 70 68 66 66 65 65 65 69 74 74 76 79 82 82 78 73 66 68 70 71 72 71 70
92 92 88 83 76 78 77 74 75 78 76 75 77 78 76 76 74 74 69 69 71 67 68 65 65 65 65 69 74 76 80 80 80 80 78 76 71 65 67 69 70 70 70
93 91 90 87 75 74 75 76 74 77 76 74 72 74 73 73 72 72 65 68 67 66 66 64 64 63 64 68 74 75 79 79 78 78 77 76 75 73 67 67 68 68 69
94 92 88 86 76 72 74 75 72 73 73 73 75 73 71 70 72 68 70 66 66 64 64 66 63 64 64 70 72 77 78 78 77 80 77 75 74 72 73 66 65 65 67
94 92 89 87 78 72 72 72 71 72 72 69 68 70 69 69 69 70 67 65 67 63 63 64 62 63 66 71 76 74 75 78 77 77 77 76 74 73 72 73 71 69 64
91 90 88 85 79 72 69 67 68 67 67 68 67 68 68 68 67 67 66 65 65 62 63 64 63 62 63 76 70 67 67 70 75 77 78 77 77 76 75 75 74 74 70
88 87 85 85 83 73 70 73 77 73 73 71 69 67 67 66 66 65 66 64 63 62 62 62 62 61 62 70 69 68 61 61 68 75 77 76 76 77 76 76 75 75 76
86 85 85 85 84 74 75 78 77 73 69 66 67 67 67 67 66 65 65 63 62 62 62 62 63 62 63 67 70 69 62 59 63 70 73 76 75 75 77 76 76 76 76
87 85 85 85 83 73 78 80 75 68 65 68 68 68 64 65 65 65 63 63 62 62 61 62 64 63 67 66 69 75 74 74 64 59 67 73 75 74 74 76 76 76 76
88 85 83 84 83 77 79 81 76 74 76 74 70 68 66 63 64 63 63 62 61 61 62 62 63 66 68 68 70 70 72 74 72 68 63 67 73 75 76 74 76 76 76
89 84 81 81 81 79 79 79 77 75 76 74 70 67 64 62 62 61 62 62 62 62 62 62 64 66 68 70 73 72 71 68 71 71 70 69 69 72 75 76 73 75 75

GFSSE_sfc_temp_096.txt.gz
Temp
85 79 75 75 76 76 75 75 75 75 75 76 76 76 76 76 76 76 76 76 77 78 79 78 78 78 78 77 76 76 75 75 75 76 76 77 78 78 77 76 76 76 75
85 80 74 75 75 76 76 75 75 75 75 76 76 75 75 75 75 76 76 76 77 78 79 78 78 78 77 76 75 75 75 74 74 75 76 78 78 78 77 75 75 75 75
85 80 78 74 75 75 76 76 75 75 76 76 76 75 75 75 76 76 76 76 77 78 78 78 78 78 76 75 74 74 74 74 74 75 76 76 75 76 75 74 74 74 74
87 82 80 73 74 75 75 75 75 76 76 76 76 75 75 76 75 76 75 76 76 78 78 78 78 77 75 74 73 74 74 74 73 75 74 76 77 75 75 75 74 75 75
88 86 80 73 73 74 74 75 75 75 75 75 75 76 76 76 76 76 75 75 76 77 78 78 78 75 73 73 73 73 73 73 73 76 74 73 73 75 75 74 74 74 74
90 89 72 72 73 74 74 74 74 74 74 74 74 75 76 76 76 76 75 75 76 76 77 77 76 73 72 72 72 73 73 73 73 72 74 74 73 76 75 73 73 73 73
89 79 76 71 72 73 74 74 74 74 73 74 74 74 75 76 76 75 75 75 75 76 76 75 73 72 72 71 72 72 72 71 73 70 74 71 72 75 74 73 72 72 72
82 81 76 73 72 72 73 73 73 73 73 73 73 74 75 75 74 75 74 74 74 75 75 74 72 72 71 71 71 71 70 69 75 70 73 69 73 74 74 73 72 71 71
84 80 76 75 74 71 71 71 72 72 73 72 73 73 73 72 72 73 73 74 75 73 73 72 71 71 71 71 71 70 68 71 71 71 74 71 73 74 73 73 72 71 71
81 80 77 76 75 74 73 70 71 71 72 72 72 72 71 71 71 71 72 73 74 73 72 71 70 69 69 70 69 67 69 71 71 73 72 71 72 74 73 73 73 72 72
81 80 78 77 77 76 76 73 70 71 71 71 72 71 68 73 73 73 72 71 71 71 71 71 68 68 67 67 68 69 69 71 70 70 71 70 73 74 73 73 72 72 72
78 79 77 77 77 77 81 74 74 75 74 73 74 73 72 74 74 76 72 68 70 69 69 68 67 67 67 66 65 66 67 70 72 69 70 70 73 74 73 72 71 71 71
82 80 78 76 76 77 78 75 76 76 75 75 75 75 75 75 73 71 68 69 68 69 67 67 66 67 68 67 66 69 69 70 70 71 70 69 72 73 73 72 72 71 70
82 81 78 77 77 76 77 78 77 77 76 75 75 75 74 73 71 71 71 68 67 66 66 66 65 65 67 69 70 70 70 71 69 70 69 68 70 73 73 72 71 71 70
82 82 78 77 77 77 76 76 76 76 76 76 75 75 74 73 71 70 71 71 68 66 66 65 65 65 65 66 68 70 69 69 70 71 68 66 68 71 72 72 72 71 71
84 82 75 75 77 77 76 75 74 75 76 76 75 74 74 72 71 70 69 70 69 67 66 66 65 64 64 65 66 69 70 69 70 71 68 66 66 68 70 72 71 72 71
84 83 76 74 76 76 76 75 75 74 73 73 74 73 73 72 70 70 69 68 67 67 65 64 64 64 64 64 64 68 70 69 72 71 69 66 65 65 67 69 70 71 71
85 84 80 79 75 76 76 75 74 75 73 73 72 73 73 72 71 69 68 67 67 65 65 64 64 63 63 63 62 65 66 72 72 70 69 68 66 67 65 67 68 69 69
87 84 80 78 75 74 74 72 71 73 73 73 72 71 72 71 71 69 67 66 66 65 64 64 63 63 62 62 63 64 68 69 68 73 69 67 66 66 65 65 65 66 67
87 84 81 78 74 73 74 71 71 71 72 73 71 70 71 69 69 68 67 66 66 64 64 63 62 62 62 62 65 65 69 66 67 67 69 69 67 67 66 65 64 64 64
80 80 80 77 73 72 71 68 67 67 68 68 69 70 70 68 68 68 66 65 65 64 63 63 62 61 60 62 60 62 62 64 65 65 68 67 67 67 65 67 66 65 63
79 79 78 79 73 72 72 71 70 68 67 67 66 67 67 67 67 67 66 65 63 63 62 62 62 60 61 62 59 62 56 59 63 69 68 68 67 68 68 67 67 66 65
77 77 78 80 75 74 72 71 71 70 69 66 65 64 65 66 66 66 66 65 64 64 62 62 62 61 59 60 60 64 55 53 57 61 64 64 65 67 67 68 69 68 66
77 77 78 79 80 74 72 70 69 69 65 66 65 66 65 66 66 65 65 64 63 63 62 62 62 62 61 59 60 68 64 63 57 52 59 63 64 65 64 65 66 67 67
78 75 76 78 80 73 72 72 71 69 68 67 66 65 65 65 65 64 64 64 62 62 62 62 61 61 61 60 61 63 62 63 63 58 54 56 62 64 64 63 63 64 67
78 76 75 77 78 73 72 72 73 68 69 68 66 64 63 63 63 63 63 63 62 62 62 62 62 62 61 61 64 65 65 61 60 61 57 58 59 62 65 64 63 64 65

GFSSE_sfc_temp_099.txt.gz
Temp
74 74 74 75 75 75 75 74 74 74 75 75 76 76 76 76 76 76 76 77 77 78 79 79 78 78 79 78 77 76 75 75 75 76 76 77 78 77 76 75 75 75 75
76 75 73 75 75 75 75 75 74 75 75 75 75 75 75 75 75 76 76 76 77 78 79 78 78 78 77 76 75 75 75 74 74 75 76 78 77 77 76 74 74 74 75
74 75 75 74 75 75 75 75 75 75 76 75 75 75 75 75 75 75 75 76 77 78 78 78 78 77 76 75 74 74 74 74 74 74 75 73 74 76 75 74 74 74 75
75 74 74 73 74 75 75 75 75 76 76 75 75 75 75 75 75 75 75 75 77 77 78 78 78 77 75 74 73 74 74 74 73 74 72 73 75 76 75 75 74 75 75
76 76 74 72 73 74 74 74 74 75 75 75 75 75 75 76 76 75 75 75 76 77 78 78 77 75 73 72 73 73 73 73 73 73 70 70 72 75 75 74 74 74 73
78 77 71 71 72 73 74 74 74 74 73 73 74 75 75 76 76 75 74 75 76 77 77 77 75 73 72 72 72 73 72 72 71 69 71 72 72 75 75 74 73 73 73
75 72 72 70 72 73 74 74 73 73 73 73 73 74 75 75 75 75 74 75 75 76 76 75 73 72 72 71 72 71 71 71 69 68 69 68 72 75 75 73 73 72 72
73 72 72 72 72 72 73 73 72 72 73 73 73 73 74 74 74 74 74 73 74 74 74 74 72 72 71 71 71 70 69 72 72 68 69 68 73 74 74 73 71 71 71
74 71 70 70 71 71 71 71 71 71 72 74 73 72 73 72 72 73 73 73 74 73 72 71 71 71 71 71 69 68 69 70 68 68 70 70 72 74 73 72 72 71 71
72 71 69 69 69 68 70 70 70 71 72 72 72 71 71 71 71 72 71 71 72 73 72 70 70 70 70 68 67 68 69 69 66 67 66 70 72 74 74 73 72 71 71
72 71 70 69 69 68 68 70 70 71 75 72 72 71 68 70 70 71 70 71 71 71 70 71 69 68 67 67 66 66 68 69 66 66 70 70 73 74 73 73 72 72 71
70 70 71 70 69 69 73 69 68 70 72 73 72 71 69 69 69 72 69 68 69 69 69 68 67 68 68 67 65 65 65 66 67 66 69 70 73 74 73 73 72 72 71
74 72 71 71 70 70 71 68 69 69 69 70 71 70 69 70 68 67 65 66 67 67 66 66 66 66 67 67 66 64 65 66 66 68 69 69 72 73 73 72 72 72 71
74 73 73 73 72 70 68 69 70 69 69 69 69 69 69 67 66 65 65 65 65 65 65 64 65 66 66 68 68 67 65 65 67 68 68 68 70 73 73 72 72 71 71
75 75 73 73 74 73 69 70 70 70 70 70 70 70 69 67 67 66 65 65 65 65 64 63 64 63 64 66 68 66 65 65 67 68 68 66 68 71 72 73 72 71 70
75 75 74 73 74 75 73 70 71 70 70 70 70 71 68 68 68 67 66 64 64 64 64 64 63 62 63 64 65 66 66 65 67 67 68 67 66 68 70 72 72 72 71
74 73 73 73 74 74 74 71 69 68 70 69 70 70 69 68 68 67 67 66 66 64 65 64 63 63 63 64 64 65 66 65 66 67 66 66 65 65 67 69 70 71 71
75 72 75 76 73 73 73 70 70 67 67 66 68 69 69 68 68 66 65 64 64 64 65 64 64 62 62 62 63 63 64 64 66 67 67 65 63 66 65 66 68 69 70
79 75 74 73 72 72 71 70 69 68 66 66 66 68 68 68 68 66 65 65 65 64 64 64 63 63 62 62 62 62 62 62 66 68 65 64 62 61 62 64 65 66 67
81 79 75 72 72 71 70 68 67 68 69 67 65 66 67 67 66 65 64 64 64 63 63 63 63 63 63 62 62 62 62 61 68 66 65 65 64 62 61 63 64 64 64
77 79 70 71 71 71 69 66 66 66 68 68 68 66 70 68 67 66 65 64 64 63 63 63 62 61 60 62 60 59 59 61 65 66 64 63 63 63 61 63 63 62 64
71 71 68 73 70 71 70 70 67 67 67 67 66 67 69 67 67 66 65 64 64 63 63 62 62 60 61 61 59 58 54 57 60 65 64 64 62 64 63 64 63 62 62
70 71 70 71 70 70 69 68 65 64 65 64 64 65 65 67 67 66 65 64 64 64 62 62 62 61 59 60 60 58 54 54 58 60 61 62 61 62 63 64 63 64 62
69 70 71 70 69 69 68 67 65 64 63 65 66 66 64 65 65 65 65 64 64 63 62 62 62 61 61 59 60 62 62 63 57 54 60 62 63 62 61 63 63 64 64
69 68 71 70 69 69 68 67 66 64 65 66 64 63 64 64 64 64 64 64 63 63 63 62 62 61 61 61 60 60 60 61 59 60 53 55 58 63 64 63 64 64 64
68 66 67 69 70 68 67 66 66 65 63 63 62 62 62 62 63 63 64 64 64 63 62 62 62 61 61 61 61 61 61 61 59 59 56 56 57 58 62 62 62 63 64

GFSSE_sfc_temp_102.txt.gz
Temp
72 73 74 75 75 75 74 74 74 74 75 76 76 76 76 76 76 76 76 76 77 78 79 78 78 78 78 78 77 76 76 76 75 76 76 77 77 77 76 75 75 75 75
74 74 73 74 75 75 74 74 74 74 75 76 76 75 75 75 76 76 76 76 77 78 79 78 78 78 77 76 75 75 75 74 74 75 76 77 77 77 76 74 74 74 75
73 74 74 73 74 75 75 75 75 75 76 76 75 75 75 76 76 76 76 76 77 78 78 78 78 77 76 75 74 74 74 74 74 74 75 73 75 76 75 74 74 74 75
74 73 74 73 74 74 74 74 75 76 76 75 75 75 75 76 76 76 75 75 76 77 78 78 77 76 75 74 74 74 74 73 72 73 71 73 75 76 75 74 74 75 75
73 74 73 72 73 74 74 74 74 75 74 74 75 75 76 76 76 76 75 75 76 77 78 78 77 75 73 72 73 73 73 72 71 71 67 69 73 75 75 74 74 74 74
73 73 71 71 72 74 74 74 74 74 73 73 74 75 76 76 76 75 74 75 76 77 77 77 75 73 72 72 72 72 72 71 70 68 69 71 71 75 75 74 73 73 72
71 70 71 70 72 73 74 74 74 73 72 73 74 74 75 75 75 74 74 74 75 76 76 75 73 72 72 72 72 71 70 70 68 67 67 68 71 74 75 74 73 72 72
70 70 70 71 71 72 73 73 72 72 72 72 73 73 74 74 74 74 73 74 74 74 74 73 72 72 71 72 71 70 69 70 69 67 67 67 73 74 74 73 72 71 71
70 69 69 70 71 71 70 70 70 71 71 72 72 72 72 72 72 73 73 73 73 73 73 72 71 71 71 71 70 68 68 68 66 67 69 69 73 74 73 72 72 71 71
69 69 68 69 69 71 69 69 69 70 71 71 71 71 70 71 71 72 72 72 72 71 72 70 70 71 71 69 68 67 67 68 67 67 67 70 72 74 73 72 72 71 71
69 68 68 68 68 68 70 70 70 70 71 71 72 71 69 70 70 71 70 70 70 70 69 70 70 69 68 67 67 66 66 66 65 65 65 70 72 74 73 72 71 71 71
67 67 68 68 68 68 71 68 67 70 70 73 75 74 70 69 68 71 69 69 69 68 69 69 69 68 68 67 66 66 65 64 64 64 66 69 72 74 73 72 71 71 70
70 69 68 68 68 68 69 70 68 68 72 74 74 72 68 69 68 67 66 66 66 67 66 66 65 64 66 66 65 65 65 64 63 65 67 68 72 74 73 72 72 71 70
69 70 69 69 69 68 68 69 70 70 69 71 73 71 69 68 65 65 65 65 65 65 64 63 62 63 65 67 67 66 65 64 63 66 67 67 70 73 73 73 72 72 70
71 72 70 70 70 70 68 67 67 68 69 69 68 69 69 67 66 65 64 65 65 64 63 63 63 62 63 65 65 65 65 65 64 65 68 66 68 71 72 73 72 72 70
74 73 71 70 71 71 69 68 68 68 68 68 68 68 69 68 66 65 64 64 65 64 63 63 63 62 61 63 64 65 65 65 64 65 67 67 65 68 70 72 73 71 71
71 74 72 71 71 71 71 69 69 69 68 68 68 68 68 68 66 65 64 64 65 64 63 62 62 63 63 63 64 64 65 64 64 65 67 66 65 65 67 70 70 70 71
72 71 73 74 71 70 72 70 70 69 69 69 68 68 67 68 67 65 64 63 64 64 64 64 63 62 62 63 62 62 63 64 64 65 66 65 65 67 65 67 68 69 69
75 70 72 72 69 70 71 70 70 68 68 67 67 68 67 67 67 66 65 64 65 64 64 63 63 62 61 61 62 62 63 62 63 64 64 65 63 63 62 65 65 66 67
78 74 72 71 70 71 70 70 67 66 66 67 67 67 66 67 66 65 64 64 64 64 63 63 63 63 61 61 63 62 62 61 62 62 63 65 64 63 61 63 66 66 64
71 73 71 69 70 70 68 67 66 66 66 65 66 67 67 65 65 65 64 64 65 64 63 63 63 61 61 62 61 59 60 59 61 61 63 63 63 62 60 61 61 61 65
70 70 68 70 69 70 69 69 69 69 66 66 66 67 68 67 67 66 65 64 64 63 63 62 62 61 61 62 59 58 55 56 57 60 62 62 61 62 61 62 61 60 61
63 66 67 72 70 70 71 69 64 65 63 62 65 66 67 67 66 66 65 65 64 64 62 62 62 61 59 61 60 58 53 52 55 58 59 61 61 60 62 62 62 62 62
61 62 68 73 70 71 70 68 66 66 64 66 66 66 66 66 66 65 65 64 64 64 63 62 63 62 61 59 59 60 59 60 55 52 58 59 60 60 60 60 61 61 61
58 59 64 71 70 71 68 68 66 65 66 63 63 64 64 64 65 64 65 64 64 64 63 63 62 61 62 61 60 59 58 59 63 58 53 54 58 61 61 60 61 61 61
58 60 61 67 68 68 68 68 66 64 63 62 63 63 63 63 63 64 64 64 64 64 63 63 63 62 61 61 61 61 59 59 59 59 56 57 56 58 61 61 60 61 62

GFSSE_sfc_temp_105.txt.gz
Temp
71 72 73 74 74 74 74 74 74 75 75 76 76 76 76 76 76 76 76 76 77 78 79 79 78 78 78 78 77 76 76 75 75 76 76 77 77 77 76 75 75 74 75
72 73 73 74 74 74 74 74 74 75 76 76 75 75 75 76 76 76 76 76 77 78 79 78 78 78 77 76 76 75 75 74 74 75 76 77 77 77 76 74 74 74 75
72 73 73 73 74 74 75 75 75 76 76 76 75 75 75 76 76 76 76 76 77 78 78 78 78 77 77 75 74 74 74 74 74 74 75 76 76 76 75 74 74 75 75
73 73 73 73 73 74 74 74 75 76 76 75 75 75 75 75 76 75 75 75 76 77 78 78 77 76 75 74 73 74 73 73 72 72 70 75 76 76 75 74 75 75 75
73 73 73 72 73 74 74 74 74 75 74 74 75 75 75 76 76 75 75 75 76 77 78 78 77 75 73 72 72 72 72 71 71 70 68 72 74 75 75 75 74 74 74
71 72 71 71 72 73 74 74 74 74 73 74 74 75 75 76 76 75 74 75 76 77 78 77 75 73 72 72 72 71 71 70 69 67 68 72 74 75 75 74 73 73 73
70 70 71 71 72 73 74 74 73 73 72 73 74 74 75 75 75 74 73 74 75 76 76 75 73 72 72 71 71 71 70 69 66 66 66 67 70 75 74 74 73 72 72
69 70 71 71 72 72 73 73 72 72 72 72 73 73 74 74 73 73 73 73 74 74 73 73 72 72 71 71 71 69 68 69 68 66 66 67 72 74 75 73 72 72 72
68 69 70 71 71 70 70 70 70 71 71 71 72 72 72 72 72 72 73 73 73 73 72 72 71 71 71 71 70 68 68 68 65 65 67 67 73 74 74 73 72 71 71
66 68 69 71 71 70 70 69 69 70 70 70 71 71 70 71 71 72 71 72 72 71 71 71 71 71 70 70 69 68 67 67 65 65 65 66 72 74 73 72 72 71 71
66 66 68 69 71 71 70 70 70 70 70 70 70 70 68 70 70 71 70 70 70 70 70 70 70 69 69 68 68 67 67 65 65 64 64 68 72 74 73 72 71 71 71
64 65 67 68 69 69 71 70 71 72 70 69 70 70 70 69 69 70 69 69 69 69 69 69 69 67 67 66 65 67 66 65 64 64 64 69 71 74 73 72 71 71 70
67 67 67 67 68 68 68 69 69 69 67 67 69 69 70 68 68 68 67 67 67 68 66 67 66 65 64 65 65 65 65 65 65 64 65 67 71 74 73 72 71 71 70
67 68 67 67 67 67 68 69 70 69 67 69 70 71 69 68 68 67 66 65 65 65 64 63 63 63 64 64 65 65 64 64 63 64 64 65 70 74 74 73 72 71 70
67 68 67 67 67 67 67 69 69 70 70 72 72 71 69 69 68 66 65 65 65 63 63 62 63 62 62 63 64 65 64 63 64 64 63 64 67 71 73 73 73 72 71
71 69 68 67 68 67 67 67 68 70 71 70 71 71 70 69 68 66 65 65 65 64 63 63 62 62 62 62 62 64 64 64 65 65 64 64 64 67 71 72 72 72 71
70 73 68 68 69 68 68 67 67 68 70 69 70 70 70 69 66 65 65 66 67 64 62 62 61 61 62 62 62 63 63 64 64 65 64 64 64 65 67 69 70 71 70
65 70 72 71 69 68 68 67 67 67 67 68 68 69 69 68 66 64 64 65 65 64 62 61 61 61 63 63 61 62 63 63 64 64 64 64 65 66 65 66 68 69 69
70 68 71 71 69 69 69 68 68 67 67 67 67 67 68 67 66 65 64 65 65 64 63 62 62 63 62 61 62 62 62 62 63 64 63 64 64 64 64 64 65 65 67
69 69 71 72 70 70 69 67 67 66 67 67 67 67 67 67 66 65 63 64 64 64 63 63 62 62 62 62 62 62 62 62 63 63 63 63 63 63 62 64 64 65 64
64 66 68 70 70 69 68 67 66 66 66 66 67 67 66 67 66 65 65 64 64 63 63 63 62 61 60 61 60 60 61 62 62 62 63 62 62 62 62 63 63 67 65
62 62 64 69 69 68 70 70 69 67 66 67 67 66 67 66 65 66 65 64 64 63 63 63 62 61 61 61 59 58 55 56 59 61 61 61 61 62 61 62 61 60 64
58 57 61 67 70 69 71 70 64 63 63 64 64 65 66 66 66 65 65 65 64 64 63 63 63 62 60 61 62 58 54 52 55 58 58 60 60 61 62 61 61 61 59
53 54 57 65 68 69 70 68 66 66 65 67 66 66 67 67 66 66 65 65 64 64 63 63 63 62 61 59 60 61 58 57 54 52 57 58 59 60 60 60 61 60 60
53 54 55 59 68 70 69 69 67 66 67 64 65 65 65 65 65 66 65 64 64 64 63 63 62 62 62 61 60 59 59 57 57 55 52 54 56 59 60 60 61 60 60
52 52 56 60 67 69 68 68 66 66 64 63 64 64 64 64 64 65 65 65 64 64 63 63 63 62 62 61 61 61 60 57 56 56 54 55 55 57 59 59 59 60 59